Time,TemperatureF,DewpointF,PressureIn,WindDirection,WindDirectionDegrees,WindSpeedMPH,WindSpeedGustMPH,Humidity,HourlyPrecipIn,Conditions,Clouds,dailyrainin,SoftwareType,DateUTC
2013-02-15 00:02:00,41.8,20.8,30.11,North,0,0.0,0.0,43,0.00,,,0.00,WUHU216HW,2013-02-15 07:02:00,
2013-02-15 00:03:00,41.8,20.8,30.11,North,0,0.0,0.0,43,0.00,,,0.00,WUHU216HW,2013-02-15 07:03:00,
2013-02-15 00:04:00,41.8,20.8,30.11,North,0,0.0,0.0,43,0.00,,,0.00,WUHU216HW,2013-02-15 07:04:00,
2013-02-15 00:05:00,41.8,20.8,30.11,North,0,0.0,0.0,43,0.00,,,0.00,WUHU216HW,2013-02-15 07:05:00,
2013-02-15 00:08:00,41.6,20.6,30.11,North,0,0.0,0.0,43,0.00,,,0.00,WUHU216HW,2013-02-15 07:08:00,
2013-02-15 00:09:00,41.6,20.6,30.11,North,0,0.0,0.0,43,0.00,,,0.00,WUHU216HW,2013-02-15 07:09:00,
2013-02-15 00:10:00,41.6,20.6,30.11,North,0,0.0,0.0,43,0.00,,,0.00,WUHU216HW,2013-02-15 07:10:00,
2013-02-15 00:13:00,41.4,21.0,30.11,North,0,0.0,0.0,44,0.00,,,0.00,WUHU216HW,2013-02-15 07:13:00,
2013-02-15 00:15:00,41.4,21.0,30.11,North,0,0.0,0.0,44,0.00,,,0.00,WUHU216HW,2013-02-15 07:15:00,
2013-02-15 00:16:00,41.4,21.0,30.11,North,0,0.0,0.0,44,0.00,,,0.00,WUHU216HW,2013-02-15 07:16:00,
2013-02-15 00:18:00,41.2,20.8,30.11,North,0,0.0,0.0,44,0.00,,,0.00,WUHU216HW,2013-02-15 07:18:00,
2013-02-15 00:20:00,41.2,20.8,30.12,North,0,0.0,0.0,44,0.00,,,0.00,WUHU216HW,2013-02-15 07:20:00,
2013-02-15 00:21:00,41.2,20.8,30.11,North,0,0.0,0.0,44,0.00,,,0.00,WUHU216HW,2013-02-15 07:21:00,
2013-02-15 00:23:00,41.0,20.6,30.12,North,0,0.0,0.0,44,0.00,,,0.00,WUHU216HW,2013-02-15 07:23:00,
2013-02-15 00:25:00,41.0,20.6,30.11,North,0,0.0,0.0,44,0.00,,,0.00,WUHU216HW,2013-02-15 07:25:00,
2013-02-15 00:26:00,41.0,20.6,30.11,North,0,0.0,0.0,44,0.00,,,0.00,WUHU216HW,2013-02-15 07:26:00,
2013-02-15 00:27:00,41.0,20.6,30.11,North,0,0.0,0.0,44,0.00,,,0.00,WUHU216HW,2013-02-15 07:27:00,
2013-02-15 00:29:00,41.0,20.6,30.11,North,0,0.0,0.0,44,0.00,,,0.00,WUHU216HW,2013-02-15 07:29:00,
2013-02-15 00:31:00,41.0,20.6,30.11,North,0,0.0,0.0,44,0.00,,,0.00,WUHU216HW,2013-02-15 07:31:00,
2013-02-15 00:33:00,41.0,20.6,30.11,North,0,0.0,0.0,44,0.00,,,0.00,WUHU216HW,2013-02-15 07:33:00,
2013-02-15 00:34:00,40.9,20.4,30.12,North,0,0.0,0.0,44,0.00,,,0.00,WUHU216HW,2013-02-15 07:34:00,
2013-02-15 00:36:00,40.7,20.8,30.12,North,0,0.0,0.0,45,0.00,,,0.00,WUHU216HW,2013-02-15 07:36:00,
2013-02-15 00:38:00,40.5,21.2,30.11,North,0,0.0,0.0,46,0.00,,,0.00,WUHU216HW,2013-02-15 07:38:00,
2013-02-15 00:39:00,40.5,21.2,30.11,North,0,0.0,0.0,46,0.00,,,0.00,WUHU216HW,2013-02-15 07:39:00,
2013-02-15 00:42:00,40.5,21.2,30.12,North,0,0.0,0.0,46,0.00,,,0.00,WUHU216HW,2013-02-15 07:42:00,
2013-02-15 00:43:00,40.5,20.7,30.12,North,0,0.0,0.0,45,0.00,,,0.00,WUHU216HW,2013-02-15 07:43:00,
2013-02-15 00:44:00,40.5,20.7,30.12,North,0,0.0,0.0,45,0.00,,,0.00,WUHU216HW,2013-02-15 07:44:00,
2013-02-15 00:47:00,40.7,20.8,30.12,North,0,0.0,0.0,45,0.00,,,0.00,WUHU216HW,2013-02-15 07:47:00,
2013-02-15 00:48:00,40.7,20.8,30.12,North,0,0.0,0.0,45,0.00,,,0.00,WUHU216HW,2013-02-15 07:48:00,
2013-02-15 00:50:00,40.7,20.8,30.12,North,0,0.0,0.0,45,0.00,,,0.00,WUHU216HW,2013-02-15 07:50:00,
2013-02-15 00:52:00,40.7,20.4,30.11,North,0,0.0,0.0,44,0.00,,,0.00,WUHU216HW,2013-02-15 07:52:00,
2013-02-15 00:53:00,40.7,20.4,30.11,North,0,0.0,0.0,44,0.00,,,0.00,WUHU216HW,2013-02-15 07:53:00,
2013-02-15 00:55:00,40.7,20.4,30.12,North,0,0.0,0.0,44,0.00,,,0.00,WUHU216HW,2013-02-15 07:55:00,
2013-02-15 00:58:00,40.7,20.4,30.11,North,0,0.0,0.0,44,0.00,,,0.00,WUHU216HW,2013-02-15 07:58:00,
2013-02-15 00:59:00,40.7,20.4,30.11,North,0,0.0,0.0,44,0.00,,,0.00,WUHU216HW,2013-02-15 07:59:00,
2013-02-15 01:00:00,40.7,20.4,30.11,North,0,0.0,0.0,44,0.00,,,0.00,WUHU216HW,2013-02-15 08:00:00,
2013-02-15 01:03:00,40.9,20.4,30.11,North,0,0.0,0.0,44,0.00,,,0.00,WUHU216HW,2013-02-15 08:03:00,
2013-02-15 01:05:00,40.9,20.4,30.11,North,0,0.0,0.0,44,0.00,,,0.00,WUHU216HW,2013-02-15 08:05:00,
2013-02-15 01:06:00,40.9,20.4,30.11,North,0,0.0,0.0,44,0.00,,,0.00,WUHU216HW,2013-02-15 08:06:00,
2013-02-15 01:09:00,40.9,20.4,30.11,North,0,0.0,0.0,44,0.00,,,0.00,WUHU216HW,2013-02-15 08:09:00,
2013-02-15 01:11:00,40.9,20.4,30.11,North,0,0.0,0.0,44,0.00,,,0.00,WUHU216HW,2013-02-15 08:11:00,
2013-02-15 01:15:00,40.9,20.4,30.12,North,0,0.0,0.0,44,0.00,,,0.00,WUHU216HW,2013-02-15 08:15:00,
2013-02-15 01:16:00,41.0,20.6,30.12,North,0,0.0,0.0,44,0.00,,,0.00,WUHU216HW,2013-02-15 08:16:00,
2013-02-15 01:17:00,41.0,20.6,30.12,North,0,0.0,0.0,44,0.00,,,0.00,WUHU216HW,2013-02-15 08:17:00,
2013-02-15 01:20:00,41.0,20.6,30.12,North,0,0.0,0.0,44,0.00,,,0.00,WUHU216HW,2013-02-15 08:20:00,
2013-02-15 01:21:00,40.9,20.4,30.12,North,0,0.0,0.0,44,0.00,,,0.00,WUHU216HW,2013-02-15 08:21:00,
2013-02-15 01:22:00,40.9,20.4,30.12,North,0,0.0,0.0,44,0.00,,,0.00,WUHU216HW,2013-02-15 08:22:00,
2013-02-15 01:23:00,40.9,20.4,30.12,North,0,0.0,0.0,44,0.00,,,0.00,WUHU216HW,2013-02-15 08:23:00,
2013-02-15 01:26:00,40.7,20.4,30.12,North,0,0.0,0.0,44,0.00,,,0.00,WUHU216HW,2013-02-15 08:26:00,
2013-02-15 01:27:00,40.7,20.4,30.12,North,0,0.0,0.0,44,0.00,,,0.00,WUHU216HW,2013-02-15 08:27:00,
2013-02-15 01:29:00,40.7,20.4,30.12,North,0,0.0,0.0,44,0.00,,,0.00,WUHU216HW,2013-02-15 08:29:00,
2013-02-15 01:32:00,40.5,20.2,30.12,North,0,0.0,0.0,44,0.00,,,0.00,WUHU216HW,2013-02-15 08:32:00,
2013-02-15 01:34:00,40.5,20.2,30.12,North,0,0.0,0.0,44,0.00,,,0.00,WUHU216HW,2013-02-15 08:34:00,
2013-02-15 01:37:00,40.7,20.4,30.12,North,0,0.0,0.0,44,0.00,,,0.00,WUHU216HW,2013-02-15 08:37:00,
2013-02-15 01:38:00,40.7,20.4,30.12,North,0,0.0,0.0,44,0.00,,,0.00,WUHU216HW,2013-02-15 08:38:00,
2013-02-15 01:39:00,40.7,20.4,30.12,North,0,0.0,0.0,44,0.00,,,0.00,WUHU216HW,2013-02-15 08:39:00,
2013-02-15 01:40:00,40.7,20.4,30.13,North,0,0.0,0.0,44,0.00,,,0.00,WUHU216HW,2013-02-15 08:40:00,
2013-02-15 01:43:00,40.7,20.4,30.12,North,0,0.0,0.0,44,0.00,,,0.00,WUHU216HW,2013-02-15 08:43:00,
2013-02-15 01:45:00,40.7,20.4,30.12,North,0,0.0,0.0,44,0.00,,,0.00,WUHU216HW,2013-02-15 08:45:00,
2013-02-15 01:47:00,40.7,20.4,30.12,North,0,0.0,0.0,44,0.00,,,0.00,WUHU216HW,2013-02-15 08:47:00,
2013-02-15 01:49:00,40.7,20.8,30.12,North,0,0.0,0.0,45,0.00,,,0.00,WUHU216HW,2013-02-15 08:49:00,
2013-02-15 01:51:00,40.5,20.7,30.12,North,0,0.0,0.0,45,0.00,,,0.00,WUHU216HW,2013-02-15 08:51:00,
2013-02-15 01:53:00,40.3,20.5,30.12,North,0,0.0,0.0,45,0.00,,,0.00,WUHU216HW,2013-02-15 08:53:00,
2013-02-15 01:54:00,40.3,20.5,30.12,North,0,0.0,0.0,45,0.00,,,0.00,WUHU216HW,2013-02-15 08:54:00,
2013-02-15 01:55:00,40.3,20.5,30.12,North,0,0.0,0.0,45,0.00,,,0.00,WUHU216HW,2013-02-15 08:55:00,
2013-02-15 01:56:00,40.1,20.3,30.12,North,0,0.0,0.0,45,0.00,,,0.00,WUHU216HW,2013-02-15 08:56:00,
2013-02-15 01:58:00,40.1,20.3,30.12,North,0,0.0,0.0,45,0.00,,,0.00,WUHU216HW,2013-02-15 08:58:00,
2013-02-15 01:59:00,40.1,20.3,30.13,North,0,0.0,0.0,45,0.00,,,0.00,WUHU216HW,2013-02-15 08:59:00,
2013-02-15 02:00:00,40.1,20.3,30.13,North,0,0.0,0.0,45,0.00,,,0.00,WUHU216HW,2013-02-15 09:00:00,
2013-02-15 02:02:00,40.1,20.3,30.13,North,0,0.0,0.0,45,0.00,,,0.00,WUHU216HW,2013-02-15 09:02:00,
2013-02-15 02:03:00,40.1,20.3,30.13,North,0,0.0,0.0,45,0.00,,,0.00,WUHU216HW,2013-02-15 09:03:00,
2013-02-15 02:04:00,40.1,20.3,30.13,North,0,0.0,0.0,45,0.00,,,0.00,WUHU216HW,2013-02-15 09:04:00,
2013-02-15 02:06:00,40.1,20.9,30.13,North,0,0.0,0.0,46,0.00,,,0.00,WUHU216HW,2013-02-15 09:06:00,
2013-02-15 02:08:00,40.1,20.9,30.12,North,0,0.0,0.0,46,0.00,,,0.00,WUHU216HW,2013-02-15 09:08:00,
2013-02-15 02:09:00,40.0,20.7,30.12,North,0,0.0,0.0,46,0.00,,,0.00,WUHU216HW,2013-02-15 09:09:00,
2013-02-15 02:11:00,40.0,20.7,30.12,North,0,0.0,0.0,46,0.00,,,0.00,WUHU216HW,2013-02-15 09:11:00,
2013-02-15 02:12:00,40.0,20.7,30.12,North,0,0.0,0.0,46,0.00,,,0.00,WUHU216HW,2013-02-15 09:12:00,
2013-02-15 02:14:00,40.0,20.7,30.12,North,0,0.0,0.0,46,0.00,,,0.00,WUHU216HW,2013-02-15 09:14:00,
2013-02-15 02:15:00,40.0,20.7,30.12,North,0,0.0,0.0,46,0.00,,,0.00,WUHU216HW,2013-02-15 09:15:00,
2013-02-15 02:16:00,40.0,20.7,30.12,North,0,0.0,0.0,46,0.00,,,0.00,WUHU216HW,2013-02-15 09:16:00,
2013-02-15 02:19:00,40.0,20.7,30.12,North,0,0.0,0.0,46,0.00,,,0.00,WUHU216HW,2013-02-15 09:19:00,
2013-02-15 02:20:00,40.0,20.7,30.12,North,0,0.0,0.0,46,0.00,,,0.00,WUHU216HW,2013-02-15 09:20:00,
2013-02-15 02:22:00,40.0,20.7,30.12,North,0,0.0,0.0,46,0.00,,,0.00,WUHU216HW,2013-02-15 09:22:00,
2013-02-15 02:25:00,40.0,20.7,30.12,North,0,0.0,0.0,46,0.00,,,0.00,WUHU216HW,2013-02-15 09:25:00,
2013-02-15 02:28:00,40.0,20.7,30.12,North,0,0.0,0.0,46,0.00,,,0.00,WUHU216HW,2013-02-15 09:28:00,
2013-02-15 02:29:00,40.0,20.7,30.12,North,0,0.0,0.0,46,0.00,,,0.00,WUHU216HW,2013-02-15 09:29:00,
2013-02-15 02:30:00,40.0,20.7,30.12,North,0,0.0,0.0,46,0.00,,,0.00,WUHU216HW,2013-02-15 09:30:00,
2013-02-15 02:31:00,40.0,20.7,30.12,North,0,0.0,0.0,46,0.00,,,0.00,WUHU216HW,2013-02-15 09:31:00,
2013-02-15 02:34:00,40.0,20.7,30.12,North,0,0.0,0.0,46,0.00,,,0.00,WUHU216HW,2013-02-15 09:34:00,
2013-02-15 02:35:00,39.8,20.5,30.13,North,0,0.0,0.0,46,0.00,,,0.00,WUHU216HW,2013-02-15 09:35:00,
2013-02-15 02:37:00,39.8,20.5,30.13,North,0,0.0,0.0,46,0.00,,,0.00,WUHU216HW,2013-02-15 09:37:00,
2013-02-15 02:40:00,39.6,20.3,30.13,North,0,0.0,0.0,46,0.00,,,0.00,WUHU216HW,2013-02-15 09:40:00,
2013-02-15 02:41:00,39.6,20.3,30.13,North,0,0.0,0.0,46,0.00,,,0.00,WUHU216HW,2013-02-15 09:41:00,
2013-02-15 02:43:00,39.4,20.3,30.12,North,0,0.0,0.0,46,0.00,,,0.00,WUHU216HW,2013-02-15 09:43:00,
2013-02-15 02:45:00,39.2,20.1,30.13,North,0,0.0,0.0,46,0.00,,,0.00,WUHU216HW,2013-02-15 09:45:00,
2013-02-15 02:46:00,39.2,20.1,30.13,North,0,0.0,0.0,46,0.00,,,0.00,WUHU216HW,2013-02-15 09:46:00,
2013-02-15 02:47:00,39.2,20.1,30.12,North,0,0.0,0.0,46,0.00,,,0.00,WUHU216HW,2013-02-15 09:47:00,
2013-02-15 02:48:00,39.2,20.1,30.12,North,0,0.0,0.0,46,0.00,,,0.00,WUHU216HW,2013-02-15 09:48:00,
2013-02-15 02:51:00,39.1,19.9,30.12,North,0,0.0,0.0,46,0.00,,,0.00,WUHU216HW,2013-02-15 09:51:00,
2013-02-15 02:52:00,39.1,19.9,30.12,North,0,0.0,0.0,46,0.00,,,0.00,WUHU216HW,2013-02-15 09:52:00,
2013-02-15 02:54:00,39.1,19.9,30.12,North,0,0.0,0.0,46,0.00,,,0.00,WUHU216HW,2013-02-15 09:54:00,
2013-02-15 02:57:00,38.9,19.7,30.12,North,0,0.0,0.0,46,0.00,,,0.00,WUHU216HW,2013-02-15 09:57:00,
2013-02-15 02:59:00,39.1,19.9,30.12,North,0,0.0,0.0,46,0.00,,,0.00,WUHU216HW,2013-02-15 09:59:00,
2013-02-15 03:02:00,39.1,19.9,30.12,North,0,0.0,0.0,46,0.00,,,0.00,WUHU216HW,2013-02-15 10:02:00,
2013-02-15 03:04:00,39.1,19.9,30.12,North,0,0.0,0.0,46,0.00,,,0.00,WUHU216HW,2013-02-15 10:04:00,
2013-02-15 03:05:00,39.1,19.9,30.12,North,0,0.0,0.0,46,0.00,,,0.00,WUHU216HW,2013-02-15 10:05:00,
2013-02-15 03:08:00,38.9,19.7,30.12,North,0,0.0,0.0,46,0.00,,,0.00,WUHU216HW,2013-02-15 10:08:00,
2013-02-15 03:09:00,38.9,19.7,30.12,North,0,0.0,0.0,46,0.00,,,0.00,WUHU216HW,2013-02-15 10:09:00,
2013-02-15 03:10:00,38.9,19.7,30.12,North,0,0.0,0.0,46,0.00,,,0.00,WUHU216HW,2013-02-15 10:10:00,
2013-02-15 03:14:00,38.9,19.7,30.12,North,0,0.0,0.0,46,0.00,,,0.00,WUHU216HW,2013-02-15 10:14:00,
2013-02-15 03:15:00,38.7,19.5,30.12,North,0,0.0,0.0,46,0.00,,,0.00,WUHU216HW,2013-02-15 10:15:00,
2013-02-15 03:19:00,38.5,19.5,30.12,North,0,0.0,0.0,46,0.00,,,0.00,WUHU216HW,2013-02-15 10:19:00,
2013-02-15 03:20:00,38.5,19.5,30.12,North,0,0.0,0.0,46,0.00,,,0.00,WUHU216HW,2013-02-15 10:20:00,
2013-02-15 03:24:00,38.3,19.3,30.12,North,0,0.0,0.0,46,0.00,,,0.00,WUHU216HW,2013-02-15 10:24:00,
2013-02-15 03:25:00,38.3,19.3,30.12,North,0,0.0,0.0,46,0.00,,,0.00,WUHU216HW,2013-02-15 10:25:00,
2013-02-15 03:26:00,38.2,19.6,30.12,North,0,0.0,0.0,47,0.00,,,0.00,WUHU216HW,2013-02-15 10:26:00,
2013-02-15 03:29:00,38.0,19.4,30.12,North,0,0.0,0.0,47,0.00,,,0.00,WUHU216HW,2013-02-15 10:29:00,
2013-02-15 03:30:00,38.0,19.4,30.12,North,0,0.0,0.0,47,0.00,,,0.00,WUHU216HW,2013-02-15 10:30:00,
2013-02-15 03:31:00,38.0,19.4,30.12,North,0,0.0,0.0,47,0.00,,,0.00,WUHU216HW,2013-02-15 10:31:00,
2013-02-15 03:35:00,37.8,19.3,30.12,North,0,0.0,0.0,47,0.00,,,0.00,WUHU216HW,2013-02-15 10:35:00,
2013-02-15 03:36:00,37.8,19.3,30.12,North,0,0.0,0.0,47,0.00,,,0.00,WUHU216HW,2013-02-15 10:36:00,
2013-02-15 03:38:00,37.8,19.8,30.12,North,0,0.0,0.0,48,0.00,,,0.00,WUHU216HW,2013-02-15 10:38:00,
2013-02-15 03:40:00,37.8,19.8,30.12,North,0,0.0,0.0,48,0.00,,,0.00,WUHU216HW,2013-02-15 10:40:00,
2013-02-15 03:41:00,37.8,19.8,30.12,North,0,0.0,0.0,48,0.00,,,0.00,WUHU216HW,2013-02-15 10:41:00,
2013-02-15 03:42:00,37.6,19.6,30.12,North,0,0.0,0.0,48,0.00,,,0.00,WUHU216HW,2013-02-15 10:42:00,
2013-02-15 03:44:00,37.6,19.6,30.12,North,0,0.0,0.0,48,0.00,,,0.00,WUHU216HW,2013-02-15 10:44:00,
2013-02-15 03:45:00,37.6,19.6,30.12,North,0,0.0,0.0,48,0.00,,,0.00,WUHU216HW,2013-02-15 10:45:00,
2013-02-15 03:47:00,37.6,19.6,30.12,North,0,0.0,0.0,48,0.00,,,0.00,WUHU216HW,2013-02-15 10:47:00,
2013-02-15 03:49:00,37.6,20.2,30.12,North,0,0.0,0.0,49,0.00,,,0.00,WUHU216HW,2013-02-15 10:49:00,
2013-02-15 03:51:00,37.6,20.2,30.12,North,0,0.0,0.0,49,0.00,,,0.00,WUHU216HW,2013-02-15 10:51:00,
2013-02-15 03:52:00,37.6,20.2,30.12,North,0,0.0,0.0,49,0.00,,,0.00,WUHU216HW,2013-02-15 10:52:00,
2013-02-15 03:54:00,37.6,20.2,30.12,North,0,0.0,0.0,49,0.00,,,0.00,WUHU216HW,2013-02-15 10:54:00,
2013-02-15 03:55:00,37.6,20.2,30.12,North,0,0.0,0.0,49,0.00,,,0.00,WUHU216HW,2013-02-15 10:55:00,
2013-02-15 03:56:00,37.6,19.6,30.12,North,0,0.0,0.0,48,0.00,,,0.00,WUHU216HW,2013-02-15 10:56:00,
2013-02-15 03:58:00,37.6,19.6,30.12,North,0,0.0,0.0,48,0.00,,,0.00,WUHU216HW,2013-02-15 10:58:00,
2013-02-15 04:00:00,37.6,20.2,30.12,North,0,0.0,0.0,49,0.00,,,0.00,WUHU216HW,2013-02-15 11:00:00,
2013-02-15 04:03:00,37.8,20.4,30.12,North,0,0.0,0.0,49,0.00,,,0.00,WUHU216HW,2013-02-15 11:03:00,
2013-02-15 04:05:00,37.8,19.8,30.12,North,0,0.0,0.0,48,0.00,,,0.00,WUHU216HW,2013-02-15 11:05:00,
2013-02-15 04:06:00,37.8,19.8,30.12,North,0,0.0,0.0,48,0.00,,,0.00,WUHU216HW,2013-02-15 11:06:00,
2013-02-15 04:08:00,37.6,19.6,30.12,North,0,0.0,0.0,48,0.00,,,0.00,WUHU216HW,2013-02-15 11:08:00,
2013-02-15 04:09:00,37.8,20.4,30.12,North,0,0.0,0.0,49,0.00,,,0.00,WUHU216HW,2013-02-15 11:09:00,
2013-02-15 04:10:00,37.8,20.4,30.12,North,0,0.0,0.0,49,0.00,,,0.00,WUHU216HW,2013-02-15 11:10:00,
2013-02-15 04:11:00,37.6,20.2,30.11,North,0,0.0,0.0,49,0.00,,,0.00,WUHU216HW,2013-02-15 11:11:00,
2013-02-15 04:14:00,37.6,20.2,30.11,North,0,0.0,0.0,49,0.00,,,0.00,WUHU216HW,2013-02-15 11:14:00,
2013-02-15 04:16:00,37.6,20.2,30.11,North,0,0.0,0.0,49,0.00,,,0.00,WUHU216HW,2013-02-15 11:16:00,
2013-02-15 04:19:00,37.6,20.2,30.11,North,0,0.0,0.0,49,0.00,,,0.00,WUHU216HW,2013-02-15 11:19:00,
2013-02-15 04:21:00,37.6,20.2,30.12,North,0,0.0,0.0,49,0.00,,,0.00,WUHU216HW,2013-02-15 11:21:00,
2013-02-15 04:22:00,37.6,20.2,30.12,North,0,0.0,0.0,49,0.00,,,0.00,WUHU216HW,2013-02-15 11:22:00,
2013-02-15 04:24:00,37.6,20.2,30.12,North,0,0.0,0.0,49,0.00,,,0.00,WUHU216HW,2013-02-15 11:24:00,
2013-02-15 04:26:00,37.6,20.2,30.12,North,0,0.0,0.0,49,0.00,,,0.00,WUHU216HW,2013-02-15 11:26:00,
2013-02-15 04:27:00,37.6,20.2,30.12,North,0,0.0,0.0,49,0.00,,,0.00,WUHU216HW,2013-02-15 11:27:00,
2013-02-15 04:30:00,37.6,20.2,30.12,North,0,0.0,0.0,49,0.00,,,0.00,WUHU216HW,2013-02-15 11:30:00,
2013-02-15 04:32:00,37.6,20.2,30.12,North,0,0.0,0.0,49,0.00,,,0.00,WUHU216HW,2013-02-15 11:32:00,
2013-02-15 04:33:00,37.4,20.0,30.12,North,0,0.0,0.0,49,0.00,,,0.00,WUHU216HW,2013-02-15 11:33:00,
2013-02-15 04:35:00,37.4,20.0,30.13,North,0,0.0,0.0,49,0.00,,,0.00,WUHU216HW,2013-02-15 11:35:00,
2013-02-15 04:36:00,37.4,20.0,30.13,North,0,0.0,0.0,49,0.00,,,0.00,WUHU216HW,2013-02-15 11:36:00,
2013-02-15 04:37:00,37.4,20.0,30.13,North,0,0.0,0.0,49,0.00,,,0.00,WUHU216HW,2013-02-15 11:37:00,
2013-02-15 04:38:00,37.6,20.2,30.13,North,0,0.0,0.0,49,0.00,,,0.00,WUHU216HW,2013-02-15 11:38:00,
2013-02-15 04:40:00,37.4,20.0,30.13,North,0,0.0,0.0,49,0.00,,,0.00,WUHU216HW,2013-02-15 11:40:00,
2013-02-15 04:42:00,37.4,20.0,30.13,North,0,0.0,0.0,49,0.00,,,0.00,WUHU216HW,2013-02-15 11:42:00,
2013-02-15 04:44:00,37.1,20.2,30.13,North,0,0.0,0.0,50,0.00,,,0.00,WUHU216HW,2013-02-15 11:44:00,
2013-02-15 04:47:00,37.1,20.2,30.14,North,0,0.0,0.0,50,0.00,,,0.00,WUHU216HW,2013-02-15 11:47:00,
2013-02-15 04:48:00,37.1,20.2,30.14,North,0,0.0,0.0,50,0.00,,,0.00,WUHU216HW,2013-02-15 11:48:00,
2013-02-15 04:49:00,37.1,20.2,30.13,North,0,0.0,0.0,50,0.00,,,0.00,WUHU216HW,2013-02-15 11:49:00,
2013-02-15 04:53:00,36.9,20.1,30.13,North,0,0.0,0.0,50,0.00,,,0.00,WUHU216HW,2013-02-15 11:53:00,
2013-02-15 04:54:00,36.7,19.9,30.13,North,0,0.0,0.0,50,0.00,,,0.00,WUHU216HW,2013-02-15 11:54:00,
2013-02-15 04:56:00,36.7,19.9,30.13,North,0,0.0,0.0,50,0.00,,,0.00,WUHU216HW,2013-02-15 11:56:00,
2013-02-15 04:58:00,36.7,19.9,30.13,North,0,0.0,0.0,50,0.00,,,0.00,WUHU216HW,2013-02-15 11:58:00,
2013-02-15 04:59:00,36.7,19.9,30.13,North,0,0.0,0.0,50,0.00,,,0.00,WUHU216HW,2013-02-15 11:59:00,
2013-02-15 05:01:00,36.7,19.9,30.13,North,0,0.0,0.0,50,0.00,,,0.00,WUHU216HW,2013-02-15 12:01:00,
2013-02-15 05:02:00,36.7,20.4,30.13,North,0,0.0,0.0,51,0.00,,,0.00,WUHU216HW,2013-02-15 12:02:00,
2013-02-15 05:04:00,36.7,20.4,30.12,North,0,0.0,0.0,51,0.00,,,0.00,WUHU216HW,2013-02-15 12:04:00,
2013-02-15 05:05:00,36.7,20.4,30.12,North,0,0.0,0.0,51,0.00,,,0.00,WUHU216HW,2013-02-15 12:05:00,
2013-02-15 05:06:00,36.7,20.4,30.12,North,0,0.0,0.0,51,0.00,,,0.00,WUHU216HW,2013-02-15 12:06:00,
2013-02-15 05:07:00,36.7,20.4,30.13,North,0,0.0,0.0,51,0.00,,,0.00,WUHU216HW,2013-02-15 12:07:00,
2013-02-15 05:09:00,36.7,20.4,30.13,North,0,0.0,0.0,51,0.00,,,0.00,WUHU216HW,2013-02-15 12:09:00,
2013-02-15 05:10:00,36.7,20.4,30.12,North,0,0.0,0.0,51,0.00,,,0.00,WUHU216HW,2013-02-15 12:10:00,
2013-02-15 05:11:00,36.7,20.4,30.13,North,0,0.0,0.0,51,0.00,,,0.00,WUHU216HW,2013-02-15 12:11:00,
2013-02-15 05:14:00,36.7,20.4,30.13,North,0,0.0,0.0,51,0.00,,,0.00,WUHU216HW,2013-02-15 12:14:00,
2013-02-15 05:17:00,36.5,20.2,30.13,North,0,0.0,0.0,51,0.00,,,0.00,WUHU216HW,2013-02-15 12:17:00,
2013-02-15 05:18:00,36.5,19.7,30.13,North,0,0.0,0.0,50,0.00,,,0.00,WUHU216HW,2013-02-15 12:18:00,
2013-02-15 05:19:00,36.5,19.7,30.13,North,0,0.0,0.0,50,0.00,,,0.00,WUHU216HW,2013-02-15 12:19:00,
2013-02-15 05:20:00,36.5,19.7,30.13,North,0,0.0,0.0,50,0.00,,,0.00,WUHU216HW,2013-02-15 12:20:00,
2013-02-15 05:22:00,36.5,19.7,30.13,North,0,0.0,0.0,50,0.00,,,0.00,WUHU216HW,2013-02-15 12:22:00,
2013-02-15 05:23:00,36.4,19.5,30.13,North,0,0.0,0.0,50,0.00,,,0.00,WUHU216HW,2013-02-15 12:23:00,
2013-02-15 05:24:00,36.4,19.5,30.13,North,0,0.0,0.0,50,0.00,,,0.00,WUHU216HW,2013-02-15 12:24:00,
2013-02-15 05:25:00,36.4,19.5,30.13,North,0,0.0,0.0,50,0.00,,,0.00,WUHU216HW,2013-02-15 12:25:00,
2013-02-15 05:27:00,36.4,19.5,30.13,North,0,0.0,0.0,50,0.00,,,0.00,WUHU216HW,2013-02-15 12:27:00,
2013-02-15 05:30:00,36.4,19.5,30.14,North,0,0.0,0.0,50,0.00,,,0.00,WUHU216HW,2013-02-15 12:30:00,
2013-02-15 05:32:00,36.4,20.0,30.13,North,0,0.0,0.0,51,0.00,,,0.00,WUHU216HW,2013-02-15 12:32:00,
2013-02-15 05:36:00,36.4,20.0,30.14,North,0,0.0,0.0,51,0.00,,,0.00,WUHU216HW,2013-02-15 12:36:00,
2013-02-15 05:37:00,36.4,20.0,30.14,North,0,0.0,0.0,51,0.00,,,0.00,WUHU216HW,2013-02-15 12:37:00,
2013-02-15 05:41:00,36.2,19.8,30.14,North,0,0.0,0.0,51,0.00,,,0.00,WUHU216HW,2013-02-15 12:41:00,
2013-02-15 05:42:00,36.2,19.8,30.14,North,0,0.0,0.0,51,0.00,,,0.00,WUHU216HW,2013-02-15 12:42:00,
2013-02-15 05:43:00,36.2,19.8,30.14,North,0,0.0,0.0,51,0.00,,,0.00,WUHU216HW,2013-02-15 12:43:00,
2013-02-15 05:44:00,36.2,19.8,30.14,North,0,0.0,0.0,51,0.00,,,0.00,WUHU216HW,2013-02-15 12:44:00,
2013-02-15 05:47:00,36.0,20.1,30.14,North,0,0.0,0.0,52,0.00,,,0.00,WUHU216HW,2013-02-15 12:47:00,
2013-02-15 05:48:00,36.0,20.1,30.14,North,0,0.0,0.0,52,0.00,,,0.00,WUHU216HW,2013-02-15 12:48:00,
2013-02-15 05:50:00,36.0,20.1,30.14,North,0,0.0,0.0,52,0.00,,,0.00,WUHU216HW,2013-02-15 12:50:00,
2013-02-15 05:52:00,36.0,20.1,30.14,North,0,0.0,0.0,52,0.00,,,0.00,WUHU216HW,2013-02-15 12:52:00,
2013-02-15 05:53:00,36.0,20.1,30.14,North,0,0.0,0.0,52,0.00,,,0.00,WUHU216HW,2013-02-15 12:53:00,
2013-02-15 05:55:00,36.0,20.1,30.14,North,0,0.0,0.0,52,0.00,,,0.00,WUHU216HW,2013-02-15 12:55:00,
2013-02-15 05:57:00,35.8,19.9,30.14,North,0,0.0,0.0,52,0.00,,,0.00,WUHU216HW,2013-02-15 12:57:00,
2013-02-15 05:58:00,36.0,20.5,30.14,North,0,0.0,0.0,53,0.00,,,0.00,WUHU216HW,2013-02-15 12:58:00,
2013-02-15 06:00:00,36.0,20.5,30.14,North,0,0.0,0.0,53,0.00,,,0.00,WUHU216HW,2013-02-15 13:00:00,
2013-02-15 06:02:00,36.0,20.1,30.14,North,0,0.0,0.0,52,0.00,,,0.00,WUHU216HW,2013-02-15 13:02:00,
2013-02-15 06:03:00,36.0,20.1,30.14,North,0,0.0,0.0,52,0.00,,,0.00,WUHU216HW,2013-02-15 13:03:00,
2013-02-15 06:04:00,36.0,20.5,30.14,North,0,0.0,0.0,53,0.00,,,0.00,WUHU216HW,2013-02-15 13:04:00,
2013-02-15 06:05:00,36.0,20.5,30.14,North,0,0.0,0.0,53,0.00,,,0.00,WUHU216HW,2013-02-15 13:05:00,
2013-02-15 06:08:00,36.0,20.1,30.14,North,0,0.0,0.0,52,0.00,,,0.00,WUHU216HW,2013-02-15 13:08:00,
2013-02-15 06:09:00,36.0,20.1,30.14,North,0,0.0,0.0,52,0.00,,,0.00,WUHU216HW,2013-02-15 13:09:00,
2013-02-15 06:10:00,36.0,20.1,30.14,North,0,0.0,0.0,52,0.00,,,0.00,WUHU216HW,2013-02-15 13:10:00,
2013-02-15 06:13:00,36.0,20.1,30.14,North,0,0.0,0.0,52,0.00,,,0.00,WUHU216HW,2013-02-15 13:13:00,
2013-02-15 06:14:00,36.0,20.1,30.14,North,0,0.0,0.0,52,0.00,,,0.00,WUHU216HW,2013-02-15 13:14:00,
2013-02-15 06:15:00,36.0,20.1,30.14,North,0,0.0,0.0,52,0.00,,,0.00,WUHU216HW,2013-02-15 13:15:00,
2013-02-15 06:16:00,36.0,20.1,30.14,North,0,0.0,0.0,52,0.00,,,0.00,WUHU216HW,2013-02-15 13:16:00,
2013-02-15 06:18:00,36.0,20.1,30.14,North,0,0.0,0.0,52,0.00,,,0.00,WUHU216HW,2013-02-15 13:18:00,
2013-02-15 06:20:00,36.0,20.1,30.14,North,0,0.0,0.0,52,0.00,,,0.00,WUHU216HW,2013-02-15 13:20:00,
2013-02-15 06:21:00,36.0,20.1,30.14,North,0,0.0,0.0,52,0.00,,,0.00,WUHU216HW,2013-02-15 13:21:00,
2013-02-15 06:24:00,36.0,20.1,30.14,North,0,0.0,0.0,52,0.00,,,0.00,WUHU216HW,2013-02-15 13:24:00,
2013-02-15 06:25:00,36.0,20.5,30.14,North,0,0.0,0.0,53,0.00,,,0.00,WUHU216HW,2013-02-15 13:25:00,
2013-02-15 06:26:00,36.0,20.5,30.14,North,0,0.0,0.0,53,0.00,,,0.00,WUHU216HW,2013-02-15 13:26:00,
2013-02-15 06:27:00,36.2,20.7,30.14,North,0,0.0,0.0,53,0.00,,,0.00,WUHU216HW,2013-02-15 13:27:00,
2013-02-15 06:29:00,36.4,20.9,30.14,North,0,0.0,0.0,53,0.00,,,0.00,WUHU216HW,2013-02-15 13:29:00,
2013-02-15 06:30:00,36.4,20.4,30.14,North,0,0.0,0.0,52,0.00,,,0.00,WUHU216HW,2013-02-15 13:30:00,
2013-02-15 06:31:00,36.4,20.4,30.14,North,0,0.0,0.0,52,0.00,,,0.00,WUHU216HW,2013-02-15 13:31:00,
2013-02-15 06:32:00,36.4,20.4,30.14,North,0,0.0,0.0,52,0.00,,,0.00,WUHU216HW,2013-02-15 13:32:00,
2013-02-15 06:34:00,36.4,20.4,30.14,North,0,0.0,0.0,52,0.00,,,0.00,WUHU216HW,2013-02-15 13:34:00,
2013-02-15 06:35:00,36.2,20.3,30.14,North,0,0.0,0.0,52,0.00,,,0.00,WUHU216HW,2013-02-15 13:35:00,
2013-02-15 06:37:00,36.2,20.3,30.14,North,0,0.0,0.0,52,0.00,,,0.00,WUHU216HW,2013-02-15 13:37:00,
2013-02-15 06:40:00,36.2,20.3,30.14,North,0,0.0,0.0,52,0.00,,,0.00,WUHU216HW,2013-02-15 13:40:00,
2013-02-15 06:43:00,36.0,19.6,30.15,North,0,0.0,0.0,51,0.00,,,0.00,WUHU216HW,2013-02-15 13:43:00,
2013-02-15 06:44:00,36.0,19.6,30.15,North,0,0.0,0.0,51,0.00,,,0.00,WUHU216HW,2013-02-15 13:44:00,
2013-02-15 06:45:00,36.0,20.1,30.14,North,0,0.0,0.0,52,0.00,,,0.00,WUHU216HW,2013-02-15 13:45:00,
2013-02-15 06:46:00,36.0,19.6,30.14,North,0,0.0,0.0,51,0.00,,,0.00,WUHU216HW,2013-02-15 13:46:00,
2013-02-15 06:49:00,36.0,19.6,30.15,North,0,0.0,0.0,51,0.00,,,0.00,WUHU216HW,2013-02-15 13:49:00,
2013-02-15 06:51:00,36.2,19.8,30.15,North,0,0.0,0.0,51,0.00,,,0.00,WUHU216HW,2013-02-15 13:51:00,
2013-02-15 06:55:00,36.2,20.3,30.15,North,0,0.0,0.0,52,0.00,,,0.00,WUHU216HW,2013-02-15 13:55:00,
2013-02-15 06:56:00,36.2,19.8,30.15,North,0,0.0,0.0,51,0.00,,,0.00,WUHU216HW,2013-02-15 13:56:00,
2013-02-15 07:00:00,36.2,19.8,30.15,North,0,0.0,0.0,51,0.00,,,0.00,WUHU216HW,2013-02-15 14:00:00,
2013-02-15 07:01:00,36.2,19.8,30.15,North,0,0.0,0.0,51,0.00,,,0.00,WUHU216HW,2013-02-15 14:01:00,
2013-02-15 07:02:00,36.0,19.6,30.15,North,0,0.0,0.0,51,0.00,,,0.00,WUHU216HW,2013-02-15 14:02:00,
2013-02-15 07:05:00,36.0,19.6,30.16,North,0,0.0,0.0,51,0.00,,,0.00,WUHU216HW,2013-02-15 14:05:00,
2013-02-15 07:06:00,36.0,19.6,30.16,North,0,0.0,0.0,51,0.00,,,0.00,WUHU216HW,2013-02-15 14:06:00,
2013-02-15 07:07:00,36.0,19.6,30.16,North,0,0.0,0.0,51,0.00,,,0.00,WUHU216HW,2013-02-15 14:07:00,
2013-02-15 07:11:00,36.0,20.1,30.15,North,0,0.0,0.0,52,0.00,,,0.00,WUHU216HW,2013-02-15 14:11:00,
2013-02-15 07:12:00,36.0,20.1,30.15,North,0,0.0,0.0,52,0.00,,,0.00,WUHU216HW,2013-02-15 14:12:00,
2013-02-15 07:13:00,36.0,20.1,30.15,North,0,0.0,0.0,52,0.00,,,0.00,WUHU216HW,2013-02-15 14:13:00,
2013-02-15 07:15:00,36.0,20.1,30.16,North,0,0.0,0.0,52,0.00,,,0.00,WUHU216HW,2013-02-15 14:15:00,
2013-02-15 07:16:00,36.0,20.1,30.16,North,0,0.0,0.0,52,0.00,,,0.00,WUHU216HW,2013-02-15 14:16:00,
2013-02-15 07:17:00,36.0,20.1,30.16,North,0,0.0,0.0,52,0.00,,,0.00,WUHU216HW,2013-02-15 14:17:00,
2013-02-15 07:18:00,36.0,20.1,30.16,North,0,0.0,0.0,52,0.00,,,0.00,WUHU216HW,2013-02-15 14:18:00,
2013-02-15 07:21:00,35.8,19.9,30.16,North,0,0.0,0.0,52,0.00,,,0.00,WUHU216HW,2013-02-15 14:21:00,
2013-02-15 07:23:00,35.8,19.9,30.16,North,0,0.0,0.0,52,0.00,,,0.00,WUHU216HW,2013-02-15 14:23:00,
2013-02-15 07:24:00,35.8,19.9,30.16,North,0,0.0,0.0,52,0.00,,,0.00,WUHU216HW,2013-02-15 14:24:00,
2013-02-15 07:27:00,35.8,19.9,30.16,North,0,0.0,0.0,52,0.00,,,0.00,WUHU216HW,2013-02-15 14:27:00,
2013-02-15 07:29:00,35.8,19.9,30.16,North,0,0.0,0.0,52,0.00,,,0.00,WUHU216HW,2013-02-15 14:29:00,
2013-02-15 07:30:00,35.8,19.9,30.16,North,0,0.0,0.0,52,0.00,,,0.00,WUHU216HW,2013-02-15 14:30:00,
2013-02-15 07:32:00,35.8,19.9,30.17,North,0,0.0,0.0,52,0.00,,,0.00,WUHU216HW,2013-02-15 14:32:00,
2013-02-15 07:34:00,35.8,19.9,30.17,North,0,0.0,0.0,52,0.00,,,0.00,WUHU216HW,2013-02-15 14:34:00,
2013-02-15 07:36:00,35.8,19.9,30.17,North,0,0.0,0.0,52,0.00,,,0.00,WUHU216HW,2013-02-15 14:36:00,
2013-02-15 07:38:00,35.8,20.3,30.17,North,0,0.0,0.0,53,0.00,,,0.00,WUHU216HW,2013-02-15 14:38:00,
2013-02-15 07:39:00,35.8,20.3,30.17,North,0,0.0,0.0,53,0.00,,,0.00,WUHU216HW,2013-02-15 14:39:00,
2013-02-15 07:40:00,35.8,20.3,30.17,North,0,0.0,0.0,53,0.00,,,0.00,WUHU216HW,2013-02-15 14:40:00,
2013-02-15 07:41:00,36.0,20.5,30.17,North,0,0.0,0.0,53,0.00,,,0.00,WUHU216HW,2013-02-15 14:41:00,
2013-02-15 07:43:00,36.0,20.5,30.17,North,0,0.0,0.0,53,0.00,,,0.00,WUHU216HW,2013-02-15 14:43:00,
2013-02-15 07:45:00,36.2,20.7,30.17,North,0,0.0,0.0,53,0.00,,,0.00,WUHU216HW,2013-02-15 14:45:00,
2013-02-15 07:48:00,36.2,20.7,30.17,North,0,0.0,0.0,53,0.00,,,0.00,WUHU216HW,2013-02-15 14:48:00,
2013-02-15 07:50:00,36.2,20.7,30.17,North,0,0.0,0.0,53,0.00,,,0.00,WUHU216HW,2013-02-15 14:50:00,
2013-02-15 07:51:00,36.4,20.9,30.17,North,0,0.0,0.0,53,0.00,,,0.00,WUHU216HW,2013-02-15 14:51:00,
2013-02-15 07:53:00,36.5,21.0,30.17,North,0,0.0,0.0,53,0.00,,,0.00,WUHU216HW,2013-02-15 14:53:00,
2013-02-15 07:54:00,36.5,21.0,30.17,North,0,0.0,0.0,53,0.00,,,0.00,WUHU216HW,2013-02-15 14:54:00,
2013-02-15 07:55:00,36.9,21.3,30.17,North,0,0.0,0.0,53,0.00,,,0.00,WUHU216HW,2013-02-15 14:55:00,
2013-02-15 07:57:00,37.1,21.5,30.17,North,0,0.0,0.0,53,0.00,,,0.00,WUHU216HW,2013-02-15 14:57:00,
2013-02-15 07:59:00,37.4,21.4,30.17,North,0,0.0,0.0,52,0.00,,,0.00,WUHU216HW,2013-02-15 14:59:00,
2013-02-15 08:01:00,37.8,21.7,30.17,North,0,0.0,0.0,52,0.00,,,0.00,WUHU216HW,2013-02-15 15:01:00,
2013-02-15 08:02:00,38.0,21.9,30.18,North,0,0.0,0.0,52,0.00,,,0.00,WUHU216HW,2013-02-15 15:02:00,
2013-02-15 08:03:00,38.0,21.9,30.18,North,0,0.0,0.0,52,0.00,,,0.00,WUHU216HW,2013-02-15 15:03:00,
2013-02-15 08:05:00,38.5,22.0,30.18,North,0,0.0,0.0,51,0.00,,,0.00,WUHU216HW,2013-02-15 15:05:00,
2013-02-15 08:06:00,38.5,22.0,30.18,North,0,0.0,0.0,51,0.00,,,0.00,WUHU216HW,2013-02-15 15:06:00,
2013-02-15 08:07:00,38.7,22.1,30.18,North,0,0.0,0.0,51,0.00,,,0.00,WUHU216HW,2013-02-15 15:07:00,
2013-02-15 08:09:00,38.9,22.2,30.18,North,0,0.0,0.0,51,0.00,,,0.00,WUHU216HW,2013-02-15 15:09:00,
2013-02-15 08:11:00,39.2,22.6,30.18,North,0,0.0,0.0,51,0.00,,,0.00,WUHU216HW,2013-02-15 15:11:00,
2013-02-15 08:12:00,39.2,22.6,30.18,North,0,0.0,0.0,51,0.00,,,0.00,WUHU216HW,2013-02-15 15:12:00,
2013-02-15 08:13:00,39.6,22.9,30.18,North,0,0.0,0.0,51,0.00,,,0.00,WUHU216HW,2013-02-15 15:13:00,
2013-02-15 08:17:00,40.0,22.8,30.18,North,0,0.0,0.0,50,0.00,,,0.00,WUHU216HW,2013-02-15 15:17:00,
2013-02-15 08:18:00,40.0,22.8,30.18,North,0,0.0,0.0,50,0.00,,,0.00,WUHU216HW,2013-02-15 15:18:00,
2013-02-15 08:22:00,40.5,22.8,30.18,North,0,0.0,0.0,49,0.00,,,0.00,WUHU216HW,2013-02-15 15:22:00,
2013-02-15 08:23:00,40.7,23.0,30.19,North,0,0.0,0.0,49,0.00,,,0.00,WUHU216HW,2013-02-15 15:23:00,
2013-02-15 08:27:00,41.0,23.2,30.19,North,0,0.0,0.0,49,0.00,,,0.00,WUHU216HW,2013-02-15 15:27:00,
2013-02-15 08:28:00,41.0,23.2,30.19,North,0,0.0,0.0,49,0.00,,,0.00,WUHU216HW,2013-02-15 15:28:00,
2013-02-15 08:29:00,41.2,23.4,30.19,North,0,0.0,0.0,49,0.00,,,0.00,WUHU216HW,2013-02-15 15:29:00,
2013-02-15 08:33:00,41.4,23.6,30.19,North,0,0.0,0.0,49,0.00,,,0.00,WUHU216HW,2013-02-15 15:33:00,
2013-02-15 08:34:00,41.4,23.6,30.19,North,0,0.0,0.0,49,0.00,,,0.00,WUHU216HW,2013-02-15 15:34:00,
2013-02-15 08:35:00,41.4,23.0,30.19,North,0,0.0,0.0,48,0.00,,,0.00,WUHU216HW,2013-02-15 15:35:00,
2013-02-15 08:39:00,41.8,23.4,30.20,North,0,0.0,0.0,48,0.00,,,0.00,WUHU216HW,2013-02-15 15:39:00,
2013-02-15 08:40:00,41.9,23.6,30.20,North,0,0.0,0.0,48,0.00,,,0.00,WUHU216HW,2013-02-15 15:40:00,
2013-02-15 08:41:00,42.1,23.8,30.20,North,0,0.0,0.0,48,0.00,,,0.00,WUHU216HW,2013-02-15 15:41:00,
2013-02-15 08:45:00,42.3,23.9,30.20,North,0,0.0,0.0,48,0.00,,,0.00,WUHU216HW,2013-02-15 15:45:00,
2013-02-15 08:46:00,42.5,24.1,30.20,North,0,0.0,0.0,48,0.00,,,0.00,WUHU216HW,2013-02-15 15:46:00,
2013-02-15 08:50:00,42.8,24.5,30.20,North,0,0.0,0.0,48,0.00,,,0.00,WUHU216HW,2013-02-15 15:50:00,
2013-02-15 08:51:00,42.8,24.5,30.20,North,0,0.0,0.0,48,0.00,,,0.00,WUHU216HW,2013-02-15 15:51:00,
2013-02-15 08:53:00,43.0,24.1,30.21,North,0,0.0,0.0,47,0.00,,,0.00,WUHU216HW,2013-02-15 15:53:00,
2013-02-15 08:55:00,43.4,24.4,30.21,North,0,0.0,0.0,47,0.00,,,0.00,WUHU216HW,2013-02-15 15:55:00,
2013-02-15 08:56:00,43.4,24.4,30.21,North,0,0.0,0.0,47,0.00,,,0.00,WUHU216HW,2013-02-15 15:56:00,
2013-02-15 08:57:00,43.6,24.6,30.21,North,0,0.0,0.0,47,0.00,,,0.00,WUHU216HW,2013-02-15 15:57:00,
2013-02-15 08:58:00,43.6,24.6,30.21,North,0,0.0,0.0,47,0.00,,,0.00,WUHU216HW,2013-02-15 15:58:00,
2013-02-15 09:01:00,43.9,24.4,30.21,North,0,0.0,0.0,46,0.00,,,0.00,WUHU216HW,2013-02-15 16:01:00,
2013-02-15 09:03:00,44.3,24.7,30.21,North,0,0.0,0.0,46,0.00,,,0.00,WUHU216HW,2013-02-15 16:03:00,
2013-02-15 09:06:00,44.6,25.0,30.21,North,0,0.0,0.0,46,0.00,,,0.00,WUHU216HW,2013-02-15 16:06:00,
2013-02-15 09:07:00,44.6,25.0,30.21,North,0,0.0,0.0,46,0.00,,,0.00,WUHU216HW,2013-02-15 16:07:00,
2013-02-15 09:08:00,44.8,25.2,30.21,North,0,0.0,0.0,46,0.00,,,0.00,WUHU216HW,2013-02-15 16:08:00,
2013-02-15 09:12:00,45.2,25.5,30.21,North,0,0.0,0.0,46,0.00,,,0.00,WUHU216HW,2013-02-15 16:12:00,
2013-02-15 09:14:00,45.4,25.7,30.21,North,0,0.0,0.0,46,0.00,,,0.00,WUHU216HW,2013-02-15 16:14:00,
2013-02-15 09:17:00,45.9,25.7,30.21,North,0,0.0,0.0,45,0.00,,,0.00,WUHU216HW,2013-02-15 16:17:00,
2013-02-15 09:18:00,46.1,25.7,30.21,North,0,0.0,0.0,45,0.00,,,0.00,WUHU216HW,2013-02-15 16:18:00,
2013-02-15 09:19:00,46.3,25.4,30.21,North,0,0.0,0.0,44,0.00,,,0.00,WUHU216HW,2013-02-15 16:19:00,
2013-02-15 09:23:00,46.8,25.9,30.21,North,0,0.0,0.0,44,0.00,,,0.00,WUHU216HW,2013-02-15 16:23:00,
2013-02-15 09:25:00,47.2,26.2,30.21,North,0,0.0,0.0,44,0.00,,,0.00,WUHU216HW,2013-02-15 16:25:00,
2013-02-15 09:28:00,47.7,25.7,30.21,North,0,0.0,0.0,42,0.00,,,0.00,WUHU216HW,2013-02-15 16:28:00,
2013-02-15 09:29:00,47.9,25.7,30.21,North,0,0.0,0.0,42,0.00,,,0.00,WUHU216HW,2013-02-15 16:29:00,
2013-02-15 09:30:00,48.1,25.9,30.21,North,0,0.0,0.0,42,0.00,,,0.00,WUHU216HW,2013-02-15 16:30:00,
2013-02-15 09:33:00,48.6,26.5,30.21,North,0,0.0,0.0,42,0.00,,,0.00,WUHU216HW,2013-02-15 16:33:00,
2013-02-15 09:34:00,48.6,26.5,30.21,North,0,0.0,0.0,42,0.00,,,0.00,WUHU216HW,2013-02-15 16:34:00,
2013-02-15 09:35:00,48.6,26.5,30.21,North,0,0.0,0.0,42,0.00,,,0.00,WUHU216HW,2013-02-15 16:35:00,
2013-02-15 09:36:00,48.8,26.7,30.21,North,0,0.0,0.0,42,0.00,,,0.00,WUHU216HW,2013-02-15 16:36:00,
2013-02-15 09:39:00,49.3,26.0,30.21,North,0,0.0,0.0,40,0.00,,,0.00,WUHU216HW,2013-02-15 16:39:00,
2013-02-15 09:40:00,49.7,26.3,30.21,North,0,0.0,0.0,40,0.00,,,0.00,WUHU216HW,2013-02-15 16:40:00,
2013-02-15 09:41:00,49.9,26.5,30.21,North,0,0.0,0.0,40,0.00,,,0.00,WUHU216HW,2013-02-15 16:41:00,
2013-02-15 09:44:00,50.2,26.8,30.21,North,0,0.0,0.0,40,0.00,,,0.00,WUHU216HW,2013-02-15 16:44:00,
2013-02-15 09:46:00,50.4,26.3,30.21,North,0,0.0,0.0,39,0.00,,,0.00,WUHU216HW,2013-02-15 16:46:00,
2013-02-15 09:50:00,50.9,25.4,30.21,North,0,0.0,0.0,37,0.00,,,0.00,WUHU216HW,2013-02-15 16:50:00,
2013-02-15 09:51:00,51.1,25.6,30.21,North,0,0.0,0.0,37,0.00,,,0.00,WUHU216HW,2013-02-15 16:51:00,
2013-02-15 09:52:00,51.1,25.6,30.21,North,0,0.0,0.0,37,0.00,,,0.00,WUHU216HW,2013-02-15 16:52:00,
2013-02-15 09:55:00,51.3,25.8,30.21,North,0,0.0,0.0,37,0.00,,,0.00,WUHU216HW,2013-02-15 16:55:00,
2013-02-15 09:56:00,51.3,25.8,30.21,North,0,0.0,0.0,37,0.00,,,0.00,WUHU216HW,2013-02-15 16:56:00,
2013-02-15 09:59:00,51.7,26.0,30.21,North,0,0.0,0.0,37,0.00,,,0.00,WUHU216HW,2013-02-15 16:59:00,
2013-02-15 10:01:00,52.0,26.4,30.21,North,0,0.0,0.0,37,0.00,,,0.00,WUHU216HW,2013-02-15 17:01:00,
2013-02-15 10:02:00,52.2,26.6,30.21,North,0,0.0,0.0,37,0.00,,,0.00,WUHU216HW,2013-02-15 17:02:00,
2013-02-15 10:05:00,52.6,26.2,30.21,North,0,0.0,0.0,36,0.00,,,0.00,WUHU216HW,2013-02-15 17:05:00,
2013-02-15 10:06:00,52.7,26.4,30.21,North,0,0.0,0.0,36,0.00,,,0.00,WUHU216HW,2013-02-15 17:06:00,
2013-02-15 10:07:00,52.7,26.4,30.21,North,0,0.0,0.0,36,0.00,,,0.00,WUHU216HW,2013-02-15 17:07:00,
2013-02-15 10:09:00,52.9,26.5,30.21,North,0,0.0,0.0,36,0.00,,,0.00,WUHU216HW,2013-02-15 17:09:00,
2013-02-15 10:10:00,52.9,25.1,30.21,North,0,0.0,0.0,34,0.00,,,0.00,WUHU216HW,2013-02-15 17:10:00,
2013-02-15 10:12:00,52.9,24.5,30.21,North,0,0.0,0.0,33,0.00,,,0.00,WUHU216HW,2013-02-15 17:12:00,
2013-02-15 10:14:00,53.3,24.8,30.21,North,0,0.0,0.0,33,0.00,,,0.00,WUHU216HW,2013-02-15 17:14:00,
2013-02-15 10:17:00,53.5,24.2,30.21,North,0,0.0,0.0,32,0.00,,,0.00,WUHU216HW,2013-02-15 17:17:00,
2013-02-15 10:18:00,53.6,25.1,30.21,North,0,0.0,0.0,33,0.00,,,0.00,WUHU216HW,2013-02-15 17:18:00,
2013-02-15 10:20:00,53.6,25.1,30.21,North,0,0.0,0.0,33,0.00,,,0.00,WUHU216HW,2013-02-15 17:20:00,
2013-02-15 10:22:00,53.8,24.6,30.21,North,0,0.0,0.0,32,0.00,,,0.00,WUHU216HW,2013-02-15 17:22:00,
2013-02-15 10:24:00,54.2,24.8,30.21,North,0,0.0,0.0,32,0.00,,,0.00,WUHU216HW,2013-02-15 17:24:00,
2013-02-15 10:26:00,54.4,25.0,30.21,North,0,0.0,0.0,32,0.00,,,0.00,WUHU216HW,2013-02-15 17:26:00,
2013-02-15 10:27:00,54.4,25.0,30.21,North,0,0.0,0.0,32,0.00,,,0.00,WUHU216HW,2013-02-15 17:27:00,
2013-02-15 10:30:00,54.7,24.6,30.21,North,0,0.0,0.0,31,0.00,,,0.00,WUHU216HW,2013-02-15 17:30:00,
2013-02-15 10:31:00,54.9,24.8,30.21,North,0,0.0,0.0,31,0.00,,,0.00,WUHU216HW,2013-02-15 17:31:00,
2013-02-15 10:33:00,55.1,24.9,30.21,North,0,0.0,0.0,31,0.00,,,0.00,WUHU216HW,2013-02-15 17:33:00,
2013-02-15 10:36:00,55.4,25.2,30.21,North,0,0.0,0.0,31,0.00,,,0.00,WUHU216HW,2013-02-15 17:36:00,
2013-02-15 10:38:00,55.6,24.7,30.21,North,0,0.0,0.0,30,0.00,,,0.00,WUHU216HW,2013-02-15 17:38:00,
2013-02-15 10:39:00,55.6,23.7,30.21,North,0,0.0,0.0,29,0.00,,,0.00,WUHU216HW,2013-02-15 17:39:00,
2013-02-15 10:41:00,55.8,24.9,30.21,North,0,0.0,0.0,30,0.00,,,0.00,WUHU216HW,2013-02-15 17:41:00,
2013-02-15 10:43:00,56.2,25.1,30.21,North,0,0.0,0.0,30,0.00,,,0.00,WUHU216HW,2013-02-15 17:43:00,
2013-02-15 10:44:00,56.2,25.1,30.21,North,0,0.0,0.0,30,0.00,,,0.00,WUHU216HW,2013-02-15 17:44:00,
2013-02-15 10:48:00,56.9,24.9,30.21,North,0,0.0,0.0,29,0.00,,,0.00,WUHU216HW,2013-02-15 17:48:00,
2013-02-15 10:49:00,56.7,24.7,30.21,North,0,0.0,0.0,29,0.00,,,0.00,WUHU216HW,2013-02-15 17:49:00,
2013-02-15 10:50:00,56.9,24.9,30.21,North,0,0.0,0.0,29,0.00,,,0.00,WUHU216HW,2013-02-15 17:50:00,
2013-02-15 10:54:00,57.2,24.2,30.20,North,0,0.0,0.0,28,0.00,,,0.00,WUHU216HW,2013-02-15 17:54:00,
2013-02-15 10:55:00,57.2,24.2,30.20,North,0,0.0,0.0,28,0.00,,,0.00,WUHU216HW,2013-02-15 17:55:00,
2013-02-15 10:59:00,57.2,23.2,30.20,North,0,0.0,0.0,27,0.00,,,0.00,WUHU216HW,2013-02-15 17:59:00,
2013-02-15 11:00:00,57.1,21.2,30.20,North,0,0.0,0.0,25,0.00,,,0.00,WUHU216HW,2013-02-15 18:00:00,
2013-02-15 11:01:00,56.9,23.0,30.20,North,0,0.0,0.0,27,0.00,,,0.00,WUHU216HW,2013-02-15 18:01:00,
2013-02-15 11:04:00,56.9,22.0,30.20,North,0,0.0,0.0,26,0.00,,,0.00,WUHU216HW,2013-02-15 18:04:00,
2013-02-15 11:06:00,56.7,22.8,30.20,North,0,0.0,0.0,27,0.00,,,0.00,WUHU216HW,2013-02-15 18:06:00,
2013-02-15 11:09:00,56.9,23.9,30.20,North,0,0.0,0.0,28,0.00,,,0.00,WUHU216HW,2013-02-15 18:09:00,
2013-02-15 11:11:00,57.2,24.2,30.20,North,0,0.0,0.0,28,0.00,,,0.00,WUHU216HW,2013-02-15 18:11:00,
2013-02-15 11:12:00,57.2,24.2,30.20,North,0,0.0,0.0,28,0.00,,,0.00,WUHU216HW,2013-02-15 18:12:00,
2013-02-15 11:15:00,57.6,24.5,30.20,North,0,0.0,0.0,28,0.00,,,0.00,WUHU216HW,2013-02-15 18:15:00,
2013-02-15 11:16:00,57.8,24.7,30.20,North,0,0.0,0.0,28,0.00,,,0.00,WUHU216HW,2013-02-15 18:16:00,
2013-02-15 11:18:00,58.0,24.9,30.20,North,0,0.0,0.0,28,0.00,,,0.00,WUHU216HW,2013-02-15 18:18:00,
2013-02-15 11:19:00,58.0,24.9,30.20,North,0,0.0,0.0,28,0.00,,,0.00,WUHU216HW,2013-02-15 18:19:00,
2013-02-15 11:20:00,58.1,24.0,30.20,North,0,0.0,0.0,27,0.00,,,0.00,WUHU216HW,2013-02-15 18:20:00,
2013-02-15 11:23:00,58.3,21.2,30.19,North,0,0.0,0.0,24,0.00,,,0.00,WUHU216HW,2013-02-15 18:23:00,
2013-02-15 11:24:00,58.1,21.2,30.19,North,0,0.0,0.0,24,0.00,,,0.00,WUHU216HW,2013-02-15 18:24:00,
2013-02-15 11:25:00,58.1,21.2,30.19,North,0,0.0,0.0,24,0.00,,,0.00,WUHU216HW,2013-02-15 18:25:00,
2013-02-15 11:26:00,58.0,22.0,30.19,North,0,0.0,0.0,25,0.00,,,0.00,WUHU216HW,2013-02-15 18:26:00,
2013-02-15 11:28:00,58.0,22.0,30.19,North,0,0.0,0.0,25,0.00,,,0.00,WUHU216HW,2013-02-15 18:28:00,
2013-02-15 11:29:00,58.0,22.0,30.19,North,0,0.0,0.0,25,0.00,,,0.00,WUHU216HW,2013-02-15 18:29:00,
2013-02-15 11:30:00,58.0,23.9,30.19,North,0,0.0,0.0,27,0.00,,,0.00,WUHU216HW,2013-02-15 18:30:00,
2013-02-15 11:31:00,58.0,23.9,30.19,North,0,0.0,0.0,27,0.00,,,0.00,WUHU216HW,2013-02-15 18:31:00,
2013-02-15 11:33:00,58.3,24.2,30.19,North,0,0.0,0.0,27,0.00,,,0.00,WUHU216HW,2013-02-15 18:33:00,
2013-02-15 11:34:00,58.5,24.3,30.19,North,0,0.0,0.0,27,0.00,,,0.00,WUHU216HW,2013-02-15 18:34:00,
2013-02-15 11:35:00,58.7,24.5,30.19,North,0,0.0,0.0,27,0.00,,,0.00,WUHU216HW,2013-02-15 18:35:00,
2013-02-15 11:36:00,58.7,24.5,30.19,North,0,0.0,0.0,27,0.00,,,0.00,WUHU216HW,2013-02-15 18:36:00,
2013-02-15 11:38:00,58.9,22.7,30.19,North,0,0.0,0.0,25,0.00,,,0.00,WUHU216HW,2013-02-15 18:38:00,
2013-02-15 11:41:00,59.0,24.9,30.19,North,0,0.0,0.0,27,0.00,,,0.00,WUHU216HW,2013-02-15 18:41:00,
2013-02-15 11:42:00,59.0,24.9,30.19,North,0,0.0,0.0,27,0.00,,,0.00,WUHU216HW,2013-02-15 18:42:00,
2013-02-15 11:46:00,59.4,23.1,30.19,North,0,0.0,0.0,25,0.00,,,0.00,WUHU216HW,2013-02-15 18:46:00,
2013-02-15 11:47:00,59.4,24.1,30.19,North,0,0.0,0.0,26,0.00,,,0.00,WUHU216HW,2013-02-15 18:47:00,
2013-02-15 11:51:00,59.6,22.3,30.19,North,0,0.0,0.0,24,0.00,,,0.00,WUHU216HW,2013-02-15 18:51:00,
2013-02-15 11:52:00,59.6,22.3,30.19,North,0,0.0,0.0,24,0.00,,,0.00,WUHU216HW,2013-02-15 18:52:00,
2013-02-15 11:55:00,59.6,22.3,30.18,North,0,0.0,0.0,24,0.00,,,0.00,WUHU216HW,2013-02-15 18:55:00,
2013-02-15 11:57:00,59.8,22.5,30.18,North,0,0.0,0.0,24,0.00,,,0.00,WUHU216HW,2013-02-15 18:57:00,
2013-02-15 11:58:00,59.8,21.5,30.18,North,0,0.0,0.0,23,0.00,,,0.00,WUHU216HW,2013-02-15 18:58:00,
2013-02-15 12:01:00,59.8,20.6,30.18,North,0,0.0,0.0,22,0.00,,,0.00,WUHU216HW,2013-02-15 19:01:00,
2013-02-15 12:03:00,59.8,21.5,30.18,North,0,0.0,0.0,23,0.00,,,0.00,WUHU216HW,2013-02-15 19:03:00,
2013-02-15 12:06:00,59.8,21.5,30.18,North,0,0.0,0.0,23,0.00,,,0.00,WUHU216HW,2013-02-15 19:06:00,
2013-02-15 12:08:00,59.9,22.7,30.18,North,0,0.0,0.0,24,0.00,,,0.00,WUHU216HW,2013-02-15 19:08:00,
2013-02-15 12:11:00,60.1,21.9,30.18,North,0,0.0,0.0,23,0.00,,,0.00,WUHU216HW,2013-02-15 19:11:00,
2013-02-15 12:13:00,60.1,21.9,30.18,North,0,0.0,0.0,23,0.00,,,0.00,WUHU216HW,2013-02-15 19:13:00,
2013-02-15 12:15:00,60.3,23.0,30.18,North,0,0.0,0.0,24,0.00,,,0.00,WUHU216HW,2013-02-15 19:15:00,
2013-02-15 12:18:00,60.8,23.4,30.18,North,0,0.0,0.0,24,0.00,,,0.00,WUHU216HW,2013-02-15 19:18:00,
2013-02-15 12:19:00,60.8,23.4,30.18,North,0,0.0,0.0,24,0.00,,,0.00,WUHU216HW,2013-02-15 19:19:00,
2013-02-15 12:20:00,61.2,23.8,30.18,North,0,0.0,0.0,24,0.00,,,0.00,WUHU216HW,2013-02-15 19:20:00,
2013-02-15 12:23:00,61.4,23.0,30.17,North,0,0.0,0.0,23,0.00,,,0.00,WUHU216HW,2013-02-15 19:23:00,
2013-02-15 12:24:00,61.6,22.2,30.17,North,0,0.0,0.0,22,0.00,,,0.00,WUHU216HW,2013-02-15 19:24:00,
2013-02-15 12:25:00,61.6,21.2,30.17,North,0,0.0,0.0,21,0.00,,,0.00,WUHU216HW,2013-02-15 19:25:00,
2013-02-15 12:28:00,61.4,21.0,30.17,North,0,0.0,0.0,21,0.00,,,0.00,WUHU216HW,2013-02-15 19:28:00,
2013-02-15 12:29:00,61.4,21.0,30.17,North,0,0.0,0.0,21,0.00,,,0.00,WUHU216HW,2013-02-15 19:29:00,
2013-02-15 12:30:00,61.4,21.0,30.17,North,0,0.0,0.0,21,0.00,,,0.00,WUHU216HW,2013-02-15 19:30:00,
2013-02-15 12:31:00,61.2,20.9,30.17,North,0,0.0,0.0,21,0.00,,,0.00,WUHU216HW,2013-02-15 19:31:00,
2013-02-15 12:34:00,61.2,21.8,30.17,North,0,0.0,0.0,22,0.00,,,0.00,WUHU216HW,2013-02-15 19:34:00,
2013-02-15 12:36:00,61.2,21.8,30.17,North,0,0.0,0.0,22,0.00,,,0.00,WUHU216HW,2013-02-15 19:36:00,
2013-02-15 12:37:00,61.2,20.9,30.17,North,0,0.0,0.0,21,0.00,,,0.00,WUHU216HW,2013-02-15 19:37:00,
2013-02-15 12:39:00,61.2,20.9,30.17,North,0,0.0,0.0,21,0.00,,,0.00,WUHU216HW,2013-02-15 19:39:00,
2013-02-15 12:41:00,61.4,21.0,30.17,North,0,0.0,0.0,21,0.00,,,0.00,WUHU216HW,2013-02-15 19:41:00,
2013-02-15 12:42:00,61.4,21.0,30.17,North,0,0.0,0.0,21,0.00,,,0.00,WUHU216HW,2013-02-15 19:42:00,
2013-02-15 12:45:00,61.6,21.2,30.17,North,0,0.0,0.0,21,0.00,,,0.00,WUHU216HW,2013-02-15 19:45:00,
2013-02-15 12:46:00,61.6,21.2,30.17,North,0,0.0,0.0,21,0.00,,,0.00,WUHU216HW,2013-02-15 19:46:00,
2013-02-15 12:47:00,61.6,21.2,30.17,North,0,0.0,0.0,21,0.00,,,0.00,WUHU216HW,2013-02-15 19:47:00,
2013-02-15 12:50:00,61.9,22.4,30.17,North,0,0.0,0.0,22,0.00,,,0.00,WUHU216HW,2013-02-15 19:50:00,
2013-02-15 12:52:00,61.9,23.4,30.17,North,0,0.0,0.0,23,0.00,,,0.00,WUHU216HW,2013-02-15 19:52:00,
2013-02-15 12:53:00,62.1,23.5,30.17,North,0,0.0,0.0,23,0.00,,,0.00,WUHU216HW,2013-02-15 19:53:00,
2013-02-15 12:56:00,62.3,23.7,30.16,North,0,0.0,0.0,23,0.00,,,0.00,WUHU216HW,2013-02-15 19:56:00,
2013-02-15 12:57:00,62.5,23.9,30.16,North,0,0.0,0.0,23,0.00,,,0.00,WUHU216HW,2013-02-15 19:57:00,
2013-02-15 12:58:00,62.6,23.9,30.16,North,0,0.0,0.0,23,0.00,,,0.00,WUHU216HW,2013-02-15 19:58:00,
2013-02-15 13:01:00,62.6,22.1,30.16,North,0,0.0,0.0,21,0.00,,,0.00,WUHU216HW,2013-02-15 20:01:00,
2013-02-15 13:02:00,62.6,22.1,30.16,North,0,0.0,0.0,21,0.00,,,0.00,WUHU216HW,2013-02-15 20:02:00,
2013-02-15 13:04:00,62.8,22.1,30.16,North,0,0.0,0.0,21,0.00,,,0.00,WUHU216HW,2013-02-15 20:04:00,
2013-02-15 13:07:00,62.8,19.6,30.16,North,0,0.0,0.0,19,0.00,,,0.00,WUHU216HW,2013-02-15 20:07:00,
2013-02-15 13:08:00,62.8,19.6,30.16,North,0,0.0,0.0,19,0.00,,,0.00,WUHU216HW,2013-02-15 20:08:00,
2013-02-15 13:09:00,62.6,19.5,30.16,North,0,0.0,0.0,19,0.00,,,0.00,WUHU216HW,2013-02-15 20:09:00,
2013-02-15 13:12:00,62.6,22.1,30.15,North,0,0.0,0.0,21,0.00,,,0.00,WUHU216HW,2013-02-15 20:12:00,
2013-02-15 13:14:00,62.6,22.1,30.15,North,0,0.0,0.0,21,0.00,,,0.00,WUHU216HW,2013-02-15 20:14:00,
2013-02-15 13:15:00,62.6,21.1,30.15,North,0,0.0,0.0,20,0.00,,,0.00,WUHU216HW,2013-02-15 20:15:00,
2013-02-15 13:18:00,62.8,19.6,30.15,North,0,0.0,0.0,19,0.00,,,0.00,WUHU216HW,2013-02-15 20:18:00,
2013-02-15 13:19:00,63.0,21.3,30.15,North,0,0.0,0.0,20,0.00,,,0.00,WUHU216HW,2013-02-15 20:19:00,
2013-02-15 13:20:00,63.0,21.3,30.15,North,0,0.0,0.0,20,0.00,,,0.00,WUHU216HW,2013-02-15 20:20:00,
2013-02-15 13:21:00,63.0,22.3,30.15,North,0,0.0,0.0,21,0.00,,,0.00,WUHU216HW,2013-02-15 20:21:00,
2013-02-15 13:24:00,63.2,22.5,30.15,North,0,0.0,0.0,21,0.00,,,0.00,WUHU216HW,2013-02-15 20:24:00,
2013-02-15 13:25:00,63.4,22.6,30.15,North,0,0.0,0.0,21,0.00,,,0.00,WUHU216HW,2013-02-15 20:25:00,
2013-02-15 13:27:00,63.4,22.6,30.14,North,0,0.0,0.0,21,0.00,,,0.00,WUHU216HW,2013-02-15 20:27:00,
2013-02-15 13:30:00,63.5,22.8,30.14,North,0,0.0,0.0,21,0.00,,,0.00,WUHU216HW,2013-02-15 20:30:00,
2013-02-15 13:31:00,63.4,21.6,30.14,North,0,0.0,0.0,20,0.00,,,0.00,WUHU216HW,2013-02-15 20:31:00,
2013-02-15 13:32:00,63.5,22.8,30.14,North,0,0.0,0.0,21,0.00,,,0.00,WUHU216HW,2013-02-15 20:32:00,
2013-02-15 13:35:00,63.7,20.3,30.14,North,0,0.0,0.0,19,0.00,,,0.00,WUHU216HW,2013-02-15 20:35:00,
2013-02-15 13:37:00,63.7,20.3,30.14,North,0,0.0,0.0,19,0.00,,,0.00,WUHU216HW,2013-02-15 20:37:00,
2013-02-15 13:38:00,63.7,18.8,30.14,North,0,0.0,0.0,18,0.00,,,0.00,WUHU216HW,2013-02-15 20:38:00,
2013-02-15 13:41:00,63.9,15.8,30.14,North,0,0.0,0.0,16,0.00,,,0.00,WUHU216HW,2013-02-15 20:41:00,
2013-02-15 13:42:00,63.7,17.2,30.14,North,0,0.0,0.0,17,0.00,,,0.00,WUHU216HW,2013-02-15 20:42:00,
2013-02-15 13:45:00,63.7,18.8,30.14,North,0,0.0,0.0,18,0.00,,,0.00,WUHU216HW,2013-02-15 20:45:00,
2013-02-15 13:46:00,63.9,18.9,30.14,North,0,0.0,0.0,18,0.00,,,0.00,WUHU216HW,2013-02-15 20:46:00,
2013-02-15 13:47:00,63.9,18.9,30.14,North,0,0.0,0.0,18,0.00,,,0.00,WUHU216HW,2013-02-15 20:47:00,
2013-02-15 13:50:00,64.1,17.5,30.13,North,0,0.0,0.0,17,0.00,,,0.00,WUHU216HW,2013-02-15 20:50:00,
2013-02-15 13:51:00,64.1,19.1,30.14,North,0,0.0,0.0,18,0.00,,,0.00,WUHU216HW,2013-02-15 20:51:00,
2013-02-15 13:52:00,64.3,19.2,30.14,North,0,0.0,0.0,18,0.00,,,0.00,WUHU216HW,2013-02-15 20:52:00,
2013-02-15 13:56:00,64.4,17.7,30.13,North,0,0.0,0.0,17,0.00,,,0.00,WUHU216HW,2013-02-15 20:56:00,
2013-02-15 13:57:00,64.4,17.7,30.13,North,0,0.0,0.0,17,0.00,,,0.00,WUHU216HW,2013-02-15 20:57:00,
2013-02-15 13:58:00,64.4,17.7,30.13,North,0,0.0,0.0,17,0.00,,,0.00,WUHU216HW,2013-02-15 20:58:00,
2013-02-15 14:01:00,64.4,17.7,30.13,North,0,0.0,0.0,17,0.00,,,0.00,WUHU216HW,2013-02-15 21:01:00,
2013-02-15 14:02:00,64.4,16.2,30.13,North,0,0.0,0.0,16,0.00,,,0.00,WUHU216HW,2013-02-15 21:02:00,
2013-02-15 14:03:00,64.4,16.2,30.13,North,0,0.0,0.0,16,0.00,,,0.00,WUHU216HW,2013-02-15 21:03:00,
2013-02-15 14:06:00,64.4,17.7,30.13,North,0,0.0,0.0,17,0.00,,,0.00,WUHU216HW,2013-02-15 21:06:00,
2013-02-15 14:07:00,64.6,14.8,30.13,North,0,0.0,0.0,15,0.00,,,0.00,WUHU216HW,2013-02-15 21:07:00,
2013-02-15 14:08:00,64.6,14.8,30.13,North,0,0.0,0.0,15,0.00,,,0.00,WUHU216HW,2013-02-15 21:08:00,
2013-02-15 14:09:00,64.6,14.8,30.13,North,0,0.0,0.0,15,0.00,,,0.00,WUHU216HW,2013-02-15 21:09:00,
2013-02-15 14:11:00,64.6,14.8,30.13,North,0,0.0,0.0,15,0.00,,,0.00,WUHU216HW,2013-02-15 21:11:00,
2013-02-15 14:13:00,64.4,16.2,30.13,North,0,0.0,0.0,16,0.00,,,0.00,WUHU216HW,2013-02-15 21:13:00,
2013-02-15 14:14:00,64.4,16.2,30.13,North,0,0.0,0.0,16,0.00,,,0.00,WUHU216HW,2013-02-15 21:14:00,
2013-02-15 14:17:00,64.4,16.2,30.13,North,0,0.0,0.0,16,0.00,,,0.00,WUHU216HW,2013-02-15 21:17:00,
2013-02-15 14:18:00,64.4,16.2,30.13,North,0,0.0,0.0,16,0.00,,,0.00,WUHU216HW,2013-02-15 21:18:00,
2013-02-15 14:19:00,64.4,17.7,30.13,North,0,0.0,0.0,17,0.00,,,0.00,WUHU216HW,2013-02-15 21:19:00,
2013-02-15 14:22:00,64.4,16.2,30.13,North,0,0.0,0.0,16,0.00,,,0.00,WUHU216HW,2013-02-15 21:22:00,
2013-02-15 14:23:00,64.4,16.2,30.13,North,0,0.0,0.0,16,0.00,,,0.00,WUHU216HW,2013-02-15 21:23:00,
2013-02-15 14:24:00,64.6,16.3,30.13,North,0,0.0,0.0,16,0.00,,,0.00,WUHU216HW,2013-02-15 21:24:00,
2013-02-15 14:25:00,64.6,16.3,30.13,North,0,0.0,0.0,16,0.00,,,0.00,WUHU216HW,2013-02-15 21:25:00,
2013-02-15 14:27:00,64.6,16.3,30.13,North,0,0.0,0.0,16,0.00,,,0.00,WUHU216HW,2013-02-15 21:27:00,
2013-02-15 14:29:00,64.6,16.3,30.13,North,0,0.0,0.0,16,0.00,,,0.00,WUHU216HW,2013-02-15 21:29:00,
2013-02-15 14:30:00,64.6,16.3,30.13,North,0,0.0,0.0,16,0.00,,,0.00,WUHU216HW,2013-02-15 21:30:00,
2013-02-15 14:31:00,64.6,16.3,30.13,North,0,0.0,0.0,16,0.00,,,0.00,WUHU216HW,2013-02-15 21:31:00,
2013-02-15 14:33:00,64.6,17.9,30.13,North,0,0.0,0.0,17,0.00,,,0.00,WUHU216HW,2013-02-15 21:33:00,
2013-02-15 14:34:00,64.6,17.9,30.13,North,0,0.0,0.0,17,0.00,,,0.00,WUHU216HW,2013-02-15 21:34:00,
2013-02-15 14:35:00,64.6,17.9,30.13,North,0,0.0,0.0,17,0.00,,,0.00,WUHU216HW,2013-02-15 21:35:00,
2013-02-15 14:36:00,64.6,19.4,30.13,North,0,0.0,0.0,18,0.00,,,0.00,WUHU216HW,2013-02-15 21:36:00,
2013-02-15 14:38:00,64.6,17.9,30.13,North,0,0.0,0.0,17,0.00,,,0.00,WUHU216HW,2013-02-15 21:38:00,
2013-02-15 14:40:00,64.6,17.9,30.13,North,0,0.0,0.0,17,0.00,,,0.00,WUHU216HW,2013-02-15 21:40:00,
2013-02-15 14:41:00,64.8,18.0,30.13,North,0,0.0,0.0,17,0.00,,,0.00,WUHU216HW,2013-02-15 21:41:00,
2013-02-15 14:44:00,64.8,16.5,30.13,North,0,0.0,0.0,16,0.00,,,0.00,WUHU216HW,2013-02-15 21:44:00,
2013-02-15 14:46:00,64.6,16.3,30.13,North,0,0.0,0.0,16,0.00,,,0.00,WUHU216HW,2013-02-15 21:46:00,
2013-02-15 14:47:00,64.8,16.5,30.13,North,0,0.0,0.0,16,0.00,,,0.00,WUHU216HW,2013-02-15 21:47:00,
2013-02-15 14:49:00,64.6,16.3,30.13,North,0,0.0,0.0,16,0.00,,,0.00,WUHU216HW,2013-02-15 21:49:00,
2013-02-15 14:51:00,64.6,16.3,30.13,North,0,0.0,0.0,16,0.00,,,0.00,WUHU216HW,2013-02-15 21:51:00,
2013-02-15 14:52:00,64.8,14.9,30.13,North,0,0.0,0.0,15,0.00,,,0.00,WUHU216HW,2013-02-15 21:52:00,
2013-02-15 14:53:00,64.8,14.9,30.13,North,0,0.0,0.0,15,0.00,,,0.00,WUHU216HW,2013-02-15 21:53:00,
2013-02-15 14:56:00,64.8,11.7,30.13,North,0,0.0,0.0,13,0.00,,,0.00,WUHU216HW,2013-02-15 21:56:00,
2013-02-15 14:57:00,64.8,14.9,30.13,North,0,0.0,0.0,15,0.00,,,0.00,WUHU216HW,2013-02-15 21:57:00,
2013-02-15 14:58:00,64.8,14.9,30.13,North,0,0.0,0.0,15,0.00,,,0.00,WUHU216HW,2013-02-15 21:58:00,
2013-02-15 15:03:00,64.6,14.8,30.13,North,0,0.0,0.0,15,0.00,,,0.00,WUHU216HW,2013-02-15 22:03:00,
2013-02-15 15:08:00,64.4,16.2,30.12,North,0,0.0,0.0,16,0.00,,,0.00,WUHU216HW,2013-02-15 22:08:00,
2013-02-15 15:09:00,64.4,16.2,30.12,North,0,0.0,0.0,16,0.00,,,0.00,WUHU216HW,2013-02-15 22:09:00,
2013-02-15 15:13:00,64.4,16.2,30.12,North,0,0.0,0.0,16,0.00,,,0.00,WUHU216HW,2013-02-15 22:13:00,
2013-02-15 15:14:00,64.6,14.8,30.12,North,0,0.0,0.0,15,0.00,,,0.00,WUHU216HW,2013-02-15 22:14:00,
2013-02-15 15:15:00,64.6,16.3,30.12,North,0,0.0,0.0,16,0.00,,,0.00,WUHU216HW,2013-02-15 22:15:00,
2013-02-15 15:19:00,64.8,18.0,30.12,North,0,0.0,0.0,17,0.00,,,0.00,WUHU216HW,2013-02-15 22:19:00,
2013-02-15 15:20:00,64.8,18.0,30.12,North,0,0.0,0.0,17,0.00,,,0.00,WUHU216HW,2013-02-15 22:20:00,
2013-02-15 15:24:00,64.8,18.0,30.12,North,0,0.0,0.0,17,0.00,,,0.00,WUHU216HW,2013-02-15 22:24:00,
2013-02-15 15:25:00,64.8,18.0,30.12,North,0,0.0,0.0,17,0.00,,,0.00,WUHU216HW,2013-02-15 22:25:00,
2013-02-15 15:30:00,65.0,13.4,30.12,North,0,0.0,0.0,14,0.00,,,0.00,WUHU216HW,2013-02-15 22:30:00,
2013-02-15 15:31:00,64.8,14.9,30.12,North,0,0.0,0.0,15,0.00,,,0.00,WUHU216HW,2013-02-15 22:31:00,
2013-02-15 15:35:00,64.8,16.5,30.12,North,0,0.0,0.0,16,0.00,,,0.00,WUHU216HW,2013-02-15 22:35:00,
2013-02-15 15:36:00,64.8,16.5,30.12,North,0,0.0,0.0,16,0.00,,,0.00,WUHU216HW,2013-02-15 22:36:00,
2013-02-15 15:37:00,64.8,16.5,30.12,North,0,0.0,0.0,16,0.00,,,0.00,WUHU216HW,2013-02-15 22:37:00,
2013-02-15 15:40:00,65.0,15.0,30.13,North,0,0.0,0.0,15,0.00,,,0.00,WUHU216HW,2013-02-15 22:40:00,
2013-02-15 15:41:00,65.0,16.6,30.12,North,0,0.0,0.0,16,0.00,,,0.00,WUHU216HW,2013-02-15 22:41:00,
2013-02-15 15:43:00,65.0,16.6,30.12,North,0,0.0,0.0,16,0.00,,,0.00,WUHU216HW,2013-02-15 22:43:00,
2013-02-15 15:46:00,65.2,16.7,30.12,North,0,0.0,0.0,16,0.00,,,0.00,WUHU216HW,2013-02-15 22:46:00,
2013-02-15 15:47:00,65.2,16.7,30.12,North,0,0.0,0.0,16,0.00,,,0.00,WUHU216HW,2013-02-15 22:47:00,
2013-02-15 15:48:00,65.2,15.1,30.12,North,0,0.0,0.0,15,0.00,,,0.00,WUHU216HW,2013-02-15 22:48:00,
2013-02-15 15:49:00,65.2,15.1,30.12,North,0,0.0,0.0,15,0.00,,,0.00,WUHU216HW,2013-02-15 22:49:00,
2013-02-15 15:52:00,65.2,15.1,30.12,North,0,0.0,0.0,15,0.00,,,0.00,WUHU216HW,2013-02-15 22:52:00,
2013-02-15 15:53:00,65.2,15.1,30.12,North,0,0.0,0.0,15,0.00,,,0.00,WUHU216HW,2013-02-15 22:53:00,
2013-02-15 15:54:00,65.2,15.1,30.12,North,0,0.0,0.0,15,0.00,,,0.00,WUHU216HW,2013-02-15 22:54:00,
2013-02-15 15:58:00,65.2,15.1,30.12,North,0,0.0,0.0,15,0.00,,,0.00,WUHU216HW,2013-02-15 22:58:00,
2013-02-15 15:59:00,65.2,15.1,30.12,North,0,0.0,0.0,15,0.00,,,0.00,WUHU216HW,2013-02-15 22:59:00,
2013-02-15 16:01:00,65.2,15.1,30.12,North,0,0.0,0.0,15,0.00,,,0.00,WUHU216HW,2013-02-15 23:01:00,
2013-02-15 16:03:00,65.2,15.1,30.12,North,0,0.0,0.0,15,0.00,,,0.00,WUHU216HW,2013-02-15 23:03:00,
2013-02-15 16:05:00,65.2,15.1,30.12,North,0,0.0,0.0,15,0.00,,,0.00,WUHU216HW,2013-02-15 23:05:00,
2013-02-15 16:06:00,65.2,16.7,30.12,North,0,0.0,0.0,16,0.00,,,0.00,WUHU216HW,2013-02-15 23:06:00,
2013-02-15 16:07:00,65.3,16.9,30.12,North,0,0.0,0.0,16,0.00,,,0.00,WUHU216HW,2013-02-15 23:07:00,
2013-02-15 16:09:00,65.3,16.9,30.12,North,0,0.0,0.0,16,0.00,,,0.00,WUHU216HW,2013-02-15 23:09:00,
2013-02-15 16:10:00,65.3,16.9,30.13,North,0,0.0,0.0,16,0.00,,,0.00,WUHU216HW,2013-02-15 23:10:00,
2013-02-15 16:12:00,65.5,17.0,30.13,North,0,0.0,0.0,16,0.00,,,0.00,WUHU216HW,2013-02-15 23:12:00,
2013-02-15 16:14:00,65.5,17.0,30.13,North,0,0.0,0.0,16,0.00,,,0.00,WUHU216HW,2013-02-15 23:14:00,
2013-02-15 16:15:00,65.3,16.9,30.13,North,0,0.0,0.0,16,0.00,,,0.00,WUHU216HW,2013-02-15 23:15:00,
2013-02-15 16:17:00,65.5,17.0,30.12,North,0,0.0,0.0,16,0.00,,,0.00,WUHU216HW,2013-02-15 23:17:00,
2013-02-15 16:18:00,65.5,17.0,30.12,North,0,0.0,0.0,16,0.00,,,0.00,WUHU216HW,2013-02-15 23:18:00,
2013-02-15 16:19:00,65.5,17.0,30.12,North,0,0.0,0.0,16,0.00,,,0.00,WUHU216HW,2013-02-15 23:19:00,
2013-02-15 16:20:00,65.5,17.0,30.13,North,0,0.0,0.0,16,0.00,,,0.00,WUHU216HW,2013-02-15 23:20:00,
2013-02-15 16:23:00,65.3,16.9,30.13,North,0,0.0,0.0,16,0.00,,,0.00,WUHU216HW,2013-02-15 23:23:00,
2013-02-15 16:24:00,65.5,17.0,30.13,North,0,0.0,0.0,16,0.00,,,0.00,WUHU216HW,2013-02-15 23:24:00,
2013-02-15 16:25:00,65.5,17.0,30.13,North,0,0.0,0.0,16,0.00,,,0.00,WUHU216HW,2013-02-15 23:25:00,
2013-02-15 16:26:00,65.5,17.0,30.12,North,0,0.0,0.0,16,0.00,,,0.00,WUHU216HW,2013-02-15 23:26:00,
2013-02-15 16:29:00,65.3,16.9,30.13,North,0,0.0,0.0,16,0.00,,,0.00,WUHU216HW,2013-02-15 23:29:00,
2013-02-15 16:30:00,65.3,16.9,30.13,North,0,0.0,0.0,16,0.00,,,0.00,WUHU216HW,2013-02-15 23:30:00,
2013-02-15 16:31:00,65.3,16.9,30.12,North,0,0.0,0.0,16,0.00,,,0.00,WUHU216HW,2013-02-15 23:31:00,
2013-02-15 16:35:00,65.3,15.3,30.13,North,0,0.0,0.0,15,0.00,,,0.00,WUHU216HW,2013-02-15 23:35:00,
2013-02-15 16:36:00,65.2,15.1,30.13,North,0,0.0,0.0,15,0.00,,,0.00,WUHU216HW,2013-02-15 23:36:00,
2013-02-15 16:41:00,65.0,15.0,30.13,North,0,0.0,0.0,15,0.00,,,0.00,WUHU216HW,2013-02-15 23:41:00,
2013-02-15 16:42:00,65.0,15.0,30.13,North,0,0.0,0.0,15,0.00,,,0.00,WUHU216HW,2013-02-15 23:42:00,
2013-02-15 16:46:00,65.0,16.6,30.13,North,0,0.0,0.0,16,0.00,,,0.00,WUHU216HW,2013-02-15 23:46:00,
2013-02-15 16:47:00,65.0,16.6,30.13,North,0,0.0,0.0,16,0.00,,,0.00,WUHU216HW,2013-02-15 23:47:00,
2013-02-15 16:48:00,65.0,15.0,30.13,North,0,0.0,0.0,15,0.00,,,0.00,WUHU216HW,2013-02-15 23:48:00,
2013-02-15 16:51:00,64.8,14.9,30.13,North,0,0.0,0.0,15,0.00,,,0.00,WUHU216HW,2013-02-15 23:51:00,
2013-02-15 16:52:00,64.8,14.9,30.13,North,0,0.0,0.0,15,0.00,,,0.00,WUHU216HW,2013-02-15 23:52:00,
2013-02-15 16:53:00,64.8,14.9,30.13,North,0,0.0,0.0,15,0.00,,,0.00,WUHU216HW,2013-02-15 23:53:00,
2013-02-15 16:56:00,64.8,16.5,30.13,North,0,0.0,0.0,16,0.00,,,0.00,WUHU216HW,2013-02-15 23:56:00,
2013-02-15 16:57:00,64.8,16.5,30.13,North,0,0.0,0.0,16,0.00,,,0.00,WUHU216HW,2013-02-15 23:57:00,
2013-02-15 16:58:00,64.6,16.3,30.13,North,0,0.0,0.0,16,0.00,,,0.00,WUHU216HW,2013-02-15 23:58:00,
2013-02-15 16:59:00,64.6,14.8,30.13,North,0,0.0,0.0,15,0.00,,,0.00,WUHU216HW,2013-02-15 23:59:00,
2013-02-15 17:02:00,64.6,13.1,30.13,North,0,0.0,0.0,14,0.00,,,0.00,WUHU216HW,2013-02-16 00:02:00,
2013-02-15 17:03:00,64.6,14.8,30.13,North,0,0.0,0.0,15,0.00,,,0.00,WUHU216HW,2013-02-16 00:03:00,
2013-02-15 17:04:00,64.6,14.8,30.13,North,0,0.0,0.0,15,0.00,,,0.00,WUHU216HW,2013-02-16 00:04:00,
2013-02-15 17:07:00,64.6,14.8,30.13,North,0,0.0,0.0,15,0.00,,,0.00,WUHU216HW,2013-02-16 00:07:00,
2013-02-15 17:08:00,64.6,14.8,30.13,North,0,0.0,0.0,15,0.00,,,0.00,WUHU216HW,2013-02-16 00:08:00,
2013-02-15 17:09:00,64.4,14.6,30.13,North,0,0.0,0.0,15,0.00,,,0.00,WUHU216HW,2013-02-16 00:09:00,
2013-02-15 17:10:00,64.6,14.8,30.13,North,0,0.0,0.0,15,0.00,,,0.00,WUHU216HW,2013-02-16 00:10:00,
2013-02-15 17:12:00,64.4,14.6,30.13,North,0,0.0,0.0,15,0.00,,,0.00,WUHU216HW,2013-02-16 00:12:00,
2013-02-15 17:14:00,64.4,16.2,30.13,North,0,0.0,0.0,16,0.00,,,0.00,WUHU216HW,2013-02-16 00:14:00,
2013-02-15 17:16:00,64.4,16.2,30.13,North,0,0.0,0.0,16,0.00,,,0.00,WUHU216HW,2013-02-16 00:16:00,
2013-02-15 17:17:00,64.4,16.2,30.13,North,0,0.0,0.0,16,0.00,,,0.00,WUHU216HW,2013-02-16 00:17:00,
2013-02-15 17:19:00,64.3,16.0,30.13,North,0,0.0,0.0,16,0.00,,,0.00,WUHU216HW,2013-02-16 00:19:00,
2013-02-15 17:21:00,64.1,14.3,30.13,North,0,0.0,0.0,15,0.00,,,0.00,WUHU216HW,2013-02-16 00:21:00,
2013-02-15 17:22:00,64.1,14.3,30.13,North,0,0.0,0.0,15,0.00,,,0.00,WUHU216HW,2013-02-16 00:22:00,
2013-02-15 17:24:00,64.1,14.3,30.13,North,0,0.0,0.0,15,0.00,,,0.00,WUHU216HW,2013-02-16 00:24:00,
2013-02-15 17:25:00,64.1,14.3,30.13,North,0,0.0,0.0,15,0.00,,,0.00,WUHU216HW,2013-02-16 00:25:00,
2013-02-15 17:26:00,63.9,14.2,30.13,North,0,0.0,0.0,15,0.00,,,0.00,WUHU216HW,2013-02-16 00:26:00,
2013-02-15 17:27:00,63.9,11.0,30.13,North,0,0.0,0.0,13,0.00,,,0.00,WUHU216HW,2013-02-16 00:27:00,
2013-02-15 17:29:00,63.9,11.0,30.13,North,0,0.0,0.0,13,0.00,,,0.00,WUHU216HW,2013-02-16 00:29:00,
2013-02-15 17:30:00,63.9,11.0,30.13,North,0,0.0,0.0,13,0.00,,,0.00,WUHU216HW,2013-02-16 00:30:00,
2013-02-15 17:32:00,63.7,9.3,30.13,North,0,0.0,0.0,12,0.00,,,0.00,WUHU216HW,2013-02-16 00:32:00,
2013-02-15 17:35:00,63.7,10.9,30.13,North,0,0.0,0.0,13,0.00,,,0.00,WUHU216HW,2013-02-16 00:35:00,
2013-02-15 17:37:00,63.5,10.7,30.13,North,0,0.0,0.0,13,0.00,,,0.00,WUHU216HW,2013-02-16 00:37:00,
2013-02-15 17:38:00,63.4,12.3,30.14,North,0,0.0,0.0,14,0.00,,,0.00,WUHU216HW,2013-02-16 00:38:00,
2013-02-15 17:41:00,63.4,13.8,30.14,North,0,0.0,0.0,15,0.00,,,0.00,WUHU216HW,2013-02-16 00:41:00,
2013-02-15 17:42:00,63.2,13.6,30.14,North,0,0.0,0.0,15,0.00,,,0.00,WUHU216HW,2013-02-16 00:42:00,
2013-02-15 17:43:00,63.2,13.6,30.14,North,0,0.0,0.0,15,0.00,,,0.00,WUHU216HW,2013-02-16 00:43:00,
2013-02-15 17:44:00,63.2,13.6,30.14,North,0,0.0,0.0,15,0.00,,,0.00,WUHU216HW,2013-02-16 00:44:00,
2013-02-15 17:46:00,63.0,13.5,30.14,North,0,0.0,0.0,15,0.00,,,0.00,WUHU216HW,2013-02-16 00:46:00,
2013-02-15 17:49:00,62.8,10.3,30.14,North,0,0.0,0.0,13,0.00,,,0.00,WUHU216HW,2013-02-16 00:49:00,
2013-02-15 17:52:00,62.6,11.7,30.14,North,0,0.0,0.0,14,0.00,,,0.00,WUHU216HW,2013-02-16 00:52:00,
2013-02-15 17:54:00,62.3,9.8,30.14,North,0,0.0,0.0,13,0.00,,,0.00,WUHU216HW,2013-02-16 00:54:00,
2013-02-15 17:57:00,62.1,9.6,30.14,North,0,0.0,0.0,13,0.00,,,0.00,WUHU216HW,2013-02-16 00:57:00,
2013-02-15 17:59:00,61.9,9.6,30.14,North,0,0.0,0.0,13,0.00,,,0.00,WUHU216HW,2013-02-16 00:59:00,
2013-02-15 18:03:00,61.7,11.0,30.14,North,0,0.0,0.0,14,0.00,,,0.00,WUHU216HW,2013-02-16 01:03:00,
2013-02-15 18:04:00,61.6,12.3,30.15,North,0,0.0,0.0,15,0.00,,,0.00,WUHU216HW,2013-02-16 01:04:00,
2013-02-15 18:05:00,61.6,12.3,30.15,North,0,0.0,0.0,15,0.00,,,0.00,WUHU216HW,2013-02-16 01:05:00,
2013-02-15 18:08:00,61.4,13.8,30.15,North,0,0.0,0.0,16,0.00,,,0.00,WUHU216HW,2013-02-16 01:08:00,
2013-02-15 18:10:00,61.2,13.7,30.15,North,0,0.0,0.0,16,0.00,,,0.00,WUHU216HW,2013-02-16 01:10:00,
2013-02-15 18:11:00,61.2,13.7,30.15,North,0,0.0,0.0,16,0.00,,,0.00,WUHU216HW,2013-02-16 01:11:00,
2013-02-15 18:13:00,60.8,15.0,30.15,North,0,0.0,0.0,17,0.00,,,0.00,WUHU216HW,2013-02-16 01:13:00,
2013-02-15 18:16:00,60.7,14.8,30.15,North,0,0.0,0.0,17,0.00,,,0.00,WUHU216HW,2013-02-16 01:16:00,
2013-02-15 18:17:00,60.5,14.6,30.15,North,0,0.0,0.0,17,0.00,,,0.00,WUHU216HW,2013-02-16 01:17:00,
2013-02-15 18:19:00,59.9,14.1,30.15,North,0,0.0,0.0,17,0.00,,,0.00,WUHU216HW,2013-02-16 01:19:00,
2013-02-15 18:21:00,59.8,14.0,30.15,North,0,0.0,0.0,17,0.00,,,0.00,WUHU216HW,2013-02-16 01:21:00,
2013-02-15 18:22:00,59.6,13.9,30.15,North,0,0.0,0.0,17,0.00,,,0.00,WUHU216HW,2013-02-16 01:22:00,
2013-02-15 18:25:00,59.2,13.5,30.15,North,0,0.0,0.0,17,0.00,,,0.00,WUHU216HW,2013-02-16 01:25:00,
2013-02-15 18:27:00,59.0,13.3,30.15,North,0,0.0,0.0,17,0.00,,,0.00,WUHU216HW,2013-02-16 01:27:00,
2013-02-15 18:28:00,59.0,13.3,30.15,North,0,0.0,0.0,17,0.00,,,0.00,WUHU216HW,2013-02-16 01:28:00,
2013-02-15 18:32:00,58.9,13.2,30.16,North,0,0.0,0.0,17,0.00,,,0.00,WUHU216HW,2013-02-16 01:32:00,
2013-02-15 18:33:00,58.9,13.2,30.16,North,0,0.0,0.0,17,0.00,,,0.00,WUHU216HW,2013-02-16 01:33:00,
2013-02-15 18:34:00,58.7,13.1,30.16,North,0,0.0,0.0,17,0.00,,,0.00,WUHU216HW,2013-02-16 01:34:00,
2013-02-15 18:38:00,58.5,13.0,30.16,North,0,0.0,0.0,17,0.00,,,0.00,WUHU216HW,2013-02-16 01:38:00,
2013-02-15 18:39:00,58.5,13.0,30.16,North,0,0.0,0.0,17,0.00,,,0.00,WUHU216HW,2013-02-16 01:39:00,
2013-02-15 18:43:00,58.0,12.5,30.16,North,0,0.0,0.0,17,0.00,,,0.00,WUHU216HW,2013-02-16 01:43:00,
2013-02-15 18:44:00,58.0,12.5,30.16,North,0,0.0,0.0,17,0.00,,,0.00,WUHU216HW,2013-02-16 01:44:00,
2013-02-15 18:45:00,57.8,12.3,30.16,North,0,0.0,0.0,17,0.00,,,0.00,WUHU216HW,2013-02-16 01:45:00,
2013-02-15 18:49:00,57.4,13.6,30.16,North,0,0.0,0.0,18,0.00,,,0.00,WUHU216HW,2013-02-16 01:49:00,
2013-02-15 18:51:00,57.2,13.5,30.16,North,0,0.0,0.0,18,0.00,,,0.00,WUHU216HW,2013-02-16 01:51:00,
2013-02-15 18:55:00,56.9,13.1,30.17,North,0,0.0,0.0,18,0.00,,,0.00,WUHU216HW,2013-02-16 01:55:00,
2013-02-15 18:56:00,56.7,13.1,30.17,North,0,0.0,0.0,18,0.00,,,0.00,WUHU216HW,2013-02-16 01:56:00,
2013-02-15 18:57:00,56.7,13.1,30.17,North,0,0.0,0.0,18,0.00,,,0.00,WUHU216HW,2013-02-16 01:57:00,
2013-02-15 19:00:00,56.5,12.9,30.17,North,0,0.0,0.0,18,0.00,,,0.00,WUHU216HW,2013-02-16 02:00:00,
2013-02-15 19:01:00,56.3,12.8,30.17,North,0,0.0,0.0,18,0.00,,,0.00,WUHU216HW,2013-02-16 02:01:00,
2013-02-15 19:02:00,56.3,12.8,30.17,North,0,0.0,0.0,18,0.00,,,0.00,WUHU216HW,2013-02-16 02:02:00,
2013-02-15 19:03:00,56.3,12.8,30.17,North,0,0.0,0.0,18,0.00,,,0.00,WUHU216HW,2013-02-16 02:03:00,
2013-02-15 19:05:00,56.2,12.6,30.17,North,0,0.0,0.0,18,0.00,,,0.00,WUHU216HW,2013-02-16 02:05:00,
2013-02-15 19:07:00,56.2,12.6,30.17,North,0,0.0,0.0,18,0.00,,,0.00,WUHU216HW,2013-02-16 02:07:00,
2013-02-15 19:08:00,56.2,12.6,30.17,North,0,0.0,0.0,18,0.00,,,0.00,WUHU216HW,2013-02-16 02:08:00,
2013-02-15 19:11:00,55.8,12.3,30.17,North,0,0.0,0.0,18,0.00,,,0.00,WUHU216HW,2013-02-16 02:11:00,
2013-02-15 19:13:00,55.8,12.3,30.18,North,0,0.0,0.0,18,0.00,,,0.00,WUHU216HW,2013-02-16 02:13:00,
2013-02-15 19:15:00,55.6,12.3,30.18,North,0,0.0,0.0,18,0.00,,,0.00,WUHU216HW,2013-02-16 02:15:00,
2013-02-15 19:17:00,55.4,15.1,30.18,North,0,0.0,0.0,20,0.00,,,0.00,WUHU216HW,2013-02-16 02:17:00,
2013-02-15 19:18:00,55.4,15.1,30.18,North,0,0.0,0.0,20,0.00,,,0.00,WUHU216HW,2013-02-16 02:18:00,
2013-02-15 19:20:00,55.3,14.9,30.18,North,0,0.0,0.0,20,0.00,,,0.00,WUHU216HW,2013-02-16 02:20:00,
2013-02-15 19:21:00,55.3,14.9,30.18,North,0,0.0,0.0,20,0.00,,,0.00,WUHU216HW,2013-02-16 02:21:00,
2013-02-15 19:22:00,55.1,11.7,30.18,North,0,0.0,0.0,18,0.00,,,0.00,WUHU216HW,2013-02-16 02:22:00,
2013-02-15 19:23:00,54.9,13.2,30.18,North,0,0.0,0.0,19,0.00,,,0.00,WUHU216HW,2013-02-16 02:23:00,
2013-02-15 19:26:00,54.7,14.5,30.18,North,0,0.0,0.0,20,0.00,,,0.00,WUHU216HW,2013-02-16 02:26:00,
2013-02-15 19:27:00,54.5,14.3,30.18,North,0,0.0,0.0,20,0.00,,,0.00,WUHU216HW,2013-02-16 02:27:00,
2013-02-15 19:30:00,54.4,14.1,30.19,North,0,0.0,0.0,20,0.00,,,0.00,WUHU216HW,2013-02-16 02:30:00,
2013-02-15 19:32:00,54.0,13.9,30.19,North,0,0.0,0.0,20,0.00,,,0.00,WUHU216HW,2013-02-16 02:32:00,
2013-02-15 19:33:00,54.0,13.9,30.19,North,0,0.0,0.0,20,0.00,,,0.00,WUHU216HW,2013-02-16 02:33:00,
2013-02-15 19:36:00,53.6,13.5,30.19,North,0,0.0,0.0,20,0.00,,,0.00,WUHU216HW,2013-02-16 02:36:00,
2013-02-15 19:38:00,53.5,13.3,30.19,North,0,0.0,0.0,20,0.00,,,0.00,WUHU216HW,2013-02-16 02:38:00,
2013-02-15 19:39:00,53.5,13.3,30.19,North,0,0.0,0.0,20,0.00,,,0.00,WUHU216HW,2013-02-16 02:39:00,
2013-02-15 19:41:00,53.3,13.2,30.19,North,0,0.0,0.0,20,0.00,,,0.00,WUHU216HW,2013-02-16 02:41:00,
2013-02-15 19:43:00,53.1,13.1,30.19,North,0,0.0,0.0,20,0.00,,,0.00,WUHU216HW,2013-02-16 02:43:00,
2013-02-15 19:44:00,52.9,13.0,30.19,North,0,0.0,0.0,20,0.00,,,0.00,WUHU216HW,2013-02-16 02:44:00,
2013-02-15 19:47:00,52.9,13.0,30.19,North,0,0.0,0.0,20,0.00,,,0.00,WUHU216HW,2013-02-16 02:47:00,
2013-02-15 19:48:00,52.7,13.8,30.19,North,0,0.0,0.0,21,0.00,,,0.00,WUHU216HW,2013-02-16 02:48:00,
2013-02-15 19:49:00,52.6,13.6,30.19,North,0,0.0,0.0,21,0.00,,,0.00,WUHU216HW,2013-02-16 02:49:00,
2013-02-15 19:53:00,52.2,13.3,30.20,North,0,0.0,0.0,21,0.00,,,0.00,WUHU216HW,2013-02-16 02:53:00,
2013-02-15 19:54:00,52.0,13.1,30.20,North,0,0.0,0.0,21,0.00,,,0.00,WUHU216HW,2013-02-16 02:54:00,
2013-02-15 19:58:00,51.8,13.0,30.20,North,0,0.0,0.0,21,0.00,,,0.00,WUHU216HW,2013-02-16 02:58:00,
2013-02-15 19:59:00,51.7,12.9,30.20,North,0,0.0,0.0,21,0.00,,,0.00,WUHU216HW,2013-02-16 02:59:00,
2013-02-15 20:00:00,51.7,12.9,30.20,North,0,0.0,0.0,21,0.00,,,0.00,WUHU216HW,2013-02-16 03:00:00,
2013-02-15 20:02:00,51.5,12.7,30.20,North,0,0.0,0.0,21,0.00,,,0.00,WUHU216HW,2013-02-16 03:02:00,
2013-02-15 20:04:00,51.5,12.7,30.21,North,0,0.0,0.0,21,0.00,,,0.00,WUHU216HW,2013-02-16 03:04:00,
2013-02-15 20:05:00,51.5,12.7,30.20,North,0,0.0,0.0,21,0.00,,,0.00,WUHU216HW,2013-02-16 03:05:00,
2013-02-15 20:08:00,51.5,12.7,30.21,North,0,0.0,0.0,21,0.00,,,0.00,WUHU216HW,2013-02-16 03:08:00,
2013-02-15 20:09:00,51.5,12.7,30.21,North,0,0.0,0.0,21,0.00,,,0.00,WUHU216HW,2013-02-16 03:09:00,
2013-02-15 20:11:00,51.3,12.6,30.21,North,0,0.0,0.0,21,0.00,,,0.00,WUHU216HW,2013-02-16 03:11:00,
2013-02-15 20:12:00,51.3,13.5,30.21,North,0,0.0,0.0,22,0.00,,,0.00,WUHU216HW,2013-02-16 03:12:00,
2013-02-15 20:13:00,51.3,13.5,30.21,North,0,0.0,0.0,22,0.00,,,0.00,WUHU216HW,2013-02-16 03:13:00,
2013-02-15 20:14:00,51.3,12.6,30.21,North,0,0.0,0.0,21,0.00,,,0.00,WUHU216HW,2013-02-16 03:14:00,
2013-02-15 20:17:00,50.9,12.2,30.21,North,0,0.0,0.0,21,0.00,,,0.00,WUHU216HW,2013-02-16 03:17:00,
2013-02-15 20:18:00,50.8,12.2,30.21,North,0,0.0,0.0,21,0.00,,,0.00,WUHU216HW,2013-02-16 03:18:00,
2013-02-15 20:20:00,50.8,12.2,30.21,North,0,0.0,0.0,21,0.00,,,0.00,WUHU216HW,2013-02-16 03:20:00,
2013-02-15 20:23:00,50.9,11.3,30.21,North,0,0.0,0.0,20,0.00,,,0.00,WUHU216HW,2013-02-16 03:23:00,
2013-02-15 20:25:00,50.9,11.3,30.21,North,0,0.0,0.0,20,0.00,,,0.00,WUHU216HW,2013-02-16 03:25:00,
2013-02-15 20:28:00,50.9,12.2,30.21,North,0,0.0,0.0,21,0.00,,,0.00,WUHU216HW,2013-02-16 03:28:00,
2013-02-15 20:29:00,50.8,12.2,30.21,North,0,0.0,0.0,21,0.00,,,0.00,WUHU216HW,2013-02-16 03:29:00,
2013-02-15 20:30:00,50.8,12.2,30.21,North,0,0.0,0.0,21,0.00,,,0.00,WUHU216HW,2013-02-16 03:30:00,
2013-02-15 20:31:00,50.6,12.0,30.22,North,0,0.0,0.0,21,0.00,,,0.00,WUHU216HW,2013-02-16 03:31:00,
2013-02-15 20:34:00,50.4,11.8,30.22,North,0,0.0,0.0,21,0.00,,,0.00,WUHU216HW,2013-02-16 03:34:00,
2013-02-15 20:35:00,50.2,11.7,30.21,North,0,0.0,0.0,21,0.00,,,0.00,WUHU216HW,2013-02-16 03:35:00,
2013-02-15 20:36:00,50.2,11.7,30.22,North,0,0.0,0.0,21,0.00,,,0.00,WUHU216HW,2013-02-16 03:36:00,
2013-02-15 20:39:00,50.2,11.7,30.22,North,0,0.0,0.0,21,0.00,,,0.00,WUHU216HW,2013-02-16 03:39:00,
2013-02-15 20:40:00,50.2,11.7,30.22,North,0,0.0,0.0,21,0.00,,,0.00,WUHU216HW,2013-02-16 03:40:00,
2013-02-15 20:42:00,50.4,11.8,30.22,North,0,0.0,0.0,21,0.00,,,0.00,WUHU216HW,2013-02-16 03:42:00,
2013-02-15 20:44:00,50.4,11.8,30.22,North,0,0.0,0.0,21,0.00,,,0.00,WUHU216HW,2013-02-16 03:44:00,
2013-02-15 20:46:00,50.4,11.8,30.22,North,0,0.0,0.0,21,0.00,,,0.00,WUHU216HW,2013-02-16 03:46:00,
2013-02-15 20:48:00,50.4,11.8,30.22,North,0,0.0,0.0,21,0.00,,,0.00,WUHU216HW,2013-02-16 03:48:00,
2013-02-15 20:49:00,50.4,11.8,30.22,North,0,0.0,0.0,21,0.00,,,0.00,WUHU216HW,2013-02-16 03:49:00,
2013-02-15 20:52:00,50.0,11.5,30.22,North,0,0.0,0.0,21,0.00,,,0.00,WUHU216HW,2013-02-16 03:52:00,
2013-02-15 20:53:00,50.0,11.5,30.22,North,0,0.0,0.0,21,0.00,,,0.00,WUHU216HW,2013-02-16 03:53:00,
2013-02-15 20:54:00,49.7,11.3,30.22,North,0,0.0,0.0,21,0.00,,,0.00,WUHU216HW,2013-02-16 03:54:00,
2013-02-15 20:55:00,49.7,11.3,30.22,North,0,0.0,0.0,21,0.00,,,0.00,WUHU216HW,2013-02-16 03:55:00,
2013-02-15 20:57:00,49.3,10.9,30.22,North,0,0.0,0.0,21,0.00,,,0.00,WUHU216HW,2013-02-16 03:57:00,
2013-02-15 20:58:00,49.3,10.9,30.22,North,0,0.0,0.0,21,0.00,,,0.00,WUHU216HW,2013-02-16 03:58:00,
2013-02-15 20:59:00,49.1,11.7,30.22,North,0,0.0,0.0,22,0.00,,,0.00,WUHU216HW,2013-02-16 03:59:00,
2013-02-15 21:01:00,49.0,11.5,30.22,North,0,0.0,0.0,22,0.00,,,0.00,WUHU216HW,2013-02-16 04:01:00,
2013-02-15 21:02:00,49.0,11.5,30.22,North,0,0.0,0.0,22,0.00,,,0.00,WUHU216HW,2013-02-16 04:02:00,
2013-02-15 21:03:00,49.0,11.5,30.22,North,0,0.0,0.0,22,0.00,,,0.00,WUHU216HW,2013-02-16 04:03:00,
2013-02-15 21:04:00,49.0,11.5,30.22,North,0,0.0,0.0,22,0.00,,,0.00,WUHU216HW,2013-02-16 04:04:00,
2013-02-15 21:06:00,48.8,11.3,30.22,North,0,0.0,0.0,22,0.00,,,0.00,WUHU216HW,2013-02-16 04:06:00,
2013-02-15 21:08:00,48.6,11.2,30.22,North,0,0.0,0.0,22,0.00,,,0.00,WUHU216HW,2013-02-16 04:08:00,
2013-02-15 21:09:00,48.4,11.1,30.22,North,0,0.0,0.0,22,0.00,,,0.00,WUHU216HW,2013-02-16 04:09:00,
2013-02-15 21:10:00,48.2,10.9,30.22,North,0,0.0,0.0,22,0.00,,,0.00,WUHU216HW,2013-02-16 04:10:00,
2013-02-15 21:11:00,48.2,10.9,30.22,North,0,0.0,0.0,22,0.00,,,0.00,WUHU216HW,2013-02-16 04:11:00,
2013-02-15 21:13:00,47.9,10.6,30.22,North,0,0.0,0.0,22,0.00,,,0.00,WUHU216HW,2013-02-16 04:13:00,
2013-02-15 21:14:00,47.9,10.6,30.22,North,0,0.0,0.0,22,0.00,,,0.00,WUHU216HW,2013-02-16 04:14:00,
2013-02-15 21:15:00,47.9,10.6,30.22,North,0,0.0,0.0,22,0.00,,,0.00,WUHU216HW,2013-02-16 04:15:00,
2013-02-15 21:16:00,47.9,10.6,30.22,North,0,0.0,0.0,22,0.00,,,0.00,WUHU216HW,2013-02-16 04:16:00,
2013-02-15 21:18:00,47.9,10.6,30.22,North,0,0.0,0.0,22,0.00,,,0.00,WUHU216HW,2013-02-16 04:18:00,
2013-02-15 21:20:00,47.9,10.6,30.22,North,0,0.0,0.0,22,0.00,,,0.00,WUHU216HW,2013-02-16 04:20:00,
2013-02-15 21:21:00,47.9,10.6,30.22,North,0,0.0,0.0,22,0.00,,,0.00,WUHU216HW,2013-02-16 04:21:00,
2013-02-15 21:23:00,47.9,10.6,30.22,North,0,0.0,0.0,22,0.00,,,0.00,WUHU216HW,2013-02-16 04:23:00,
2013-02-15 21:26:00,47.9,10.6,30.22,North,0,0.0,0.0,22,0.00,,,0.00,WUHU216HW,2013-02-16 04:26:00,
2013-02-15 21:27:00,47.9,9.6,30.22,North,0,0.0,0.0,21,0.00,,,0.00,WUHU216HW,2013-02-16 04:27:00,
2013-02-15 21:28:00,47.9,10.6,30.23,North,0,0.0,0.0,22,0.00,,,0.00,WUHU216HW,2013-02-16 04:28:00,
2013-02-15 21:31:00,47.9,10.6,30.23,North,0,0.0,0.0,22,0.00,,,0.00,WUHU216HW,2013-02-16 04:31:00,
2013-02-15 21:33:00,47.9,10.6,30.23,North,0,0.0,0.0,22,0.00,,,0.00,WUHU216HW,2013-02-16 04:33:00,
2013-02-15 21:34:00,47.9,10.6,30.23,North,0,0.0,0.0,22,0.00,,,0.00,WUHU216HW,2013-02-16 04:34:00,
2013-02-15 21:36:00,47.9,10.6,30.23,North,0,0.0,0.0,22,0.00,,,0.00,WUHU216HW,2013-02-16 04:36:00,
2013-02-15 21:37:00,47.9,10.6,30.23,North,0,0.0,0.0,22,0.00,,,0.00,WUHU216HW,2013-02-16 04:37:00,
2013-02-15 21:38:00,47.7,10.5,30.23,North,0,0.0,0.0,22,0.00,,,0.00,WUHU216HW,2013-02-16 04:38:00,
2013-02-15 21:39:00,47.7,10.5,30.23,North,0,0.0,0.0,22,0.00,,,0.00,WUHU216HW,2013-02-16 04:39:00,
2013-02-15 21:42:00,47.7,10.5,30.23,North,0,0.0,0.0,22,0.00,,,0.00,WUHU216HW,2013-02-16 04:42:00,
2013-02-15 21:44:00,47.5,10.3,30.23,North,0,0.0,0.0,22,0.00,,,0.00,WUHU216HW,2013-02-16 04:44:00,
2013-02-15 21:45:00,47.5,10.3,30.23,North,0,0.0,0.0,22,0.00,,,0.00,WUHU216HW,2013-02-16 04:45:00,
2013-02-15 21:47:00,47.2,10.0,30.23,North,0,0.0,0.0,22,0.00,,,0.00,WUHU216HW,2013-02-16 04:47:00,
2013-02-15 21:48:00,47.2,10.0,30.23,North,0,0.0,0.0,22,0.00,,,0.00,WUHU216HW,2013-02-16 04:48:00,
2013-02-15 21:49:00,46.8,10.6,30.23,North,0,0.0,0.0,23,0.00,,,0.00,WUHU216HW,2013-02-16 04:49:00,
2013-02-15 21:50:00,46.8,10.6,30.23,North,0,0.0,0.0,23,0.00,,,0.00,WUHU216HW,2013-02-16 04:50:00,
2013-02-15 21:53:00,46.4,10.4,30.23,North,0,0.0,0.0,23,0.00,,,0.00,WUHU216HW,2013-02-16 04:53:00,
2013-02-15 21:54:00,46.4,10.4,30.23,North,0,0.0,0.0,23,0.00,,,0.00,WUHU216HW,2013-02-16 04:54:00,
2013-02-15 21:57:00,45.9,9.9,30.23,North,0,0.0,0.0,23,0.00,,,0.00,WUHU216HW,2013-02-16 04:57:00,
2013-02-15 21:59:00,45.7,9.7,30.24,North,0,0.0,0.0,23,0.00,,,0.00,WUHU216HW,2013-02-16 04:59:00,
2013-02-15 22:00:00,45.5,10.4,30.23,North,0,0.0,0.0,24,0.00,,,0.00,WUHU216HW,2013-02-16 05:00:00,
2013-02-15 22:01:00,45.4,10.4,30.23,North,0,0.0,0.0,24,0.00,,,0.00,WUHU216HW,2013-02-16 05:01:00,
2013-02-15 22:05:00,45.0,10.0,30.24,North,0,0.0,0.0,24,0.00,,,0.00,WUHU216HW,2013-02-16 05:05:00,
2013-02-15 22:07:00,44.8,10.8,30.23,North,0,0.0,0.0,25,0.00,,,0.00,WUHU216HW,2013-02-16 05:07:00,
2013-02-15 22:10:00,44.6,10.6,30.23,North,0,0.0,0.0,25,0.00,,,0.00,WUHU216HW,2013-02-16 05:10:00,
2013-02-15 22:11:00,44.5,10.4,30.23,North,0,0.0,0.0,25,0.00,,,0.00,WUHU216HW,2013-02-16 05:11:00,
2013-02-15 22:13:00,44.5,10.4,30.23,North,0,0.0,0.0,25,0.00,,,0.00,WUHU216HW,2013-02-16 05:13:00,
2013-02-15 22:15:00,44.5,10.4,30.23,North,0,0.0,0.0,25,0.00,,,0.00,WUHU216HW,2013-02-16 05:15:00,
2013-02-15 22:16:00,44.5,10.4,30.24,North,0,0.0,0.0,25,0.00,,,0.00,WUHU216HW,2013-02-16 05:16:00,
2013-02-15 22:17:00,44.3,10.3,30.24,North,0,0.0,0.0,25,0.00,,,0.00,WUHU216HW,2013-02-16 05:17:00,
2013-02-15 22:18:00,44.3,10.3,30.24,North,0,0.0,0.0,25,0.00,,,0.00,WUHU216HW,2013-02-16 05:18:00,
2013-02-15 22:21:00,43.9,10.0,30.23,North,0,0.0,0.0,25,0.00,,,0.00,WUHU216HW,2013-02-16 05:21:00,
2013-02-15 22:22:00,43.9,10.0,30.24,North,0,0.0,0.0,25,0.00,,,0.00,WUHU216HW,2013-02-16 05:22:00,
2013-02-15 22:23:00,43.9,10.0,30.23,North,0,0.0,0.0,25,0.00,,,0.00,WUHU216HW,2013-02-16 05:23:00,
2013-02-15 22:27:00,44.1,10.2,30.23,North,0,0.0,0.0,25,0.00,,,0.00,WUHU216HW,2013-02-16 05:27:00,
2013-02-15 22:28:00,44.3,9.4,30.24,North,0,0.0,0.0,24,0.00,,,0.00,WUHU216HW,2013-02-16 05:28:00,
2013-02-15 22:32:00,44.5,9.5,30.23,North,0,0.0,0.0,24,0.00,,,0.00,WUHU216HW,2013-02-16 05:32:00,
2013-02-15 22:33:00,44.5,9.5,30.23,North,0,0.0,0.0,24,0.00,,,0.00,WUHU216HW,2013-02-16 05:33:00,
2013-02-15 22:34:00,44.5,9.5,30.23,North,0,0.0,0.0,24,0.00,,,0.00,WUHU216HW,2013-02-16 05:34:00,
2013-02-15 22:37:00,44.6,9.7,30.23,North,0,0.0,0.0,24,0.00,,,0.00,WUHU216HW,2013-02-16 05:37:00,
2013-02-15 22:39:00,44.6,9.7,30.23,North,0,0.0,0.0,24,0.00,,,0.00,WUHU216HW,2013-02-16 05:39:00,
2013-02-15 22:40:00,44.6,9.7,30.23,North,0,0.0,0.0,24,0.00,,,0.00,WUHU216HW,2013-02-16 05:40:00,
2013-02-15 22:42:00,44.6,9.7,30.23,North,0,0.0,0.0,24,0.00,,,0.00,WUHU216HW,2013-02-16 05:42:00,
2013-02-15 22:44:00,44.6,9.7,30.23,North,0,0.0,0.0,24,0.00,,,0.00,WUHU216HW,2013-02-16 05:44:00,
2013-02-15 22:45:00,44.6,9.7,30.23,North,0,0.0,0.0,24,0.00,,,0.00,WUHU216HW,2013-02-16 05:45:00,
2013-02-15 22:48:00,44.6,9.7,30.24,North,0,0.0,0.0,24,0.00,,,0.00,WUHU216HW,2013-02-16 05:48:00,
2013-02-15 22:49:00,44.6,9.7,30.23,North,0,0.0,0.0,24,0.00,,,0.00,WUHU216HW,2013-02-16 05:49:00,
2013-02-15 22:50:00,44.6,9.7,30.23,North,0,0.0,0.0,24,0.00,,,0.00,WUHU216HW,2013-02-16 05:50:00,
2013-02-15 22:53:00,44.6,9.7,30.23,North,0,0.0,0.0,24,0.00,,,0.00,WUHU216HW,2013-02-16 05:53:00,
2013-02-15 22:54:00,44.6,9.7,30.23,North,0,0.0,0.0,24,0.00,,,0.00,WUHU216HW,2013-02-16 05:54:00,
2013-02-15 22:55:00,44.6,9.7,30.23,North,0,0.0,0.0,24,0.00,,,0.00,WUHU216HW,2013-02-16 05:55:00,
2013-02-15 22:58:00,44.6,9.7,30.23,North,0,0.0,0.0,24,0.00,,,0.00,WUHU216HW,2013-02-16 05:58:00,
2013-02-15 22:59:00,44.6,9.7,30.23,North,0,0.0,0.0,24,0.00,,,0.00,WUHU216HW,2013-02-16 05:59:00,
2013-02-15 23:02:00,44.5,9.5,30.23,North,0,0.0,0.0,24,0.00,,,0.00,WUHU216HW,2013-02-16 06:02:00,
2013-02-15 23:03:00,44.5,9.5,30.23,North,0,0.0,0.0,24,0.00,,,0.00,WUHU216HW,2013-02-16 06:03:00,
2013-02-15 23:05:00,44.5,9.5,30.23,North,0,0.0,0.0,24,0.00,,,0.00,WUHU216HW,2013-02-16 06:05:00,
2013-02-15 23:08:00,44.5,9.5,30.23,North,0,0.0,0.0,24,0.00,,,0.00,WUHU216HW,2013-02-16 06:08:00,
2013-02-15 23:09:00,44.5,9.5,30.23,North,0,0.0,0.0,24,0.00,,,0.00,WUHU216HW,2013-02-16 06:09:00,
2013-02-15 23:10:00,44.5,9.5,30.23,North,0,0.0,0.0,24,0.00,,,0.00,WUHU216HW,2013-02-16 06:10:00,
2013-02-15 23:13:00,44.6,8.8,30.23,North,0,0.0,0.0,23,0.00,,,0.00,WUHU216HW,2013-02-16 06:13:00,
2013-02-15 23:15:00,44.8,9.0,30.23,North,0,0.0,0.0,23,0.00,,,0.00,WUHU216HW,2013-02-16 06:15:00,
2013-02-15 23:17:00,44.8,9.9,30.23,North,0,0.0,0.0,24,0.00,,,0.00,WUHU216HW,2013-02-16 06:17:00,
2013-02-15 23:18:00,45.0,10.0,30.23,North,0,0.0,0.0,24,0.00,,,0.00,WUHU216HW,2013-02-16 06:18:00,
2013-02-15 23:20:00,45.0,10.0,30.23,North,0,0.0,0.0,24,0.00,,,0.00,WUHU216HW,2013-02-16 06:20:00,
2013-02-15 23:22:00,44.8,9.9,30.23,North,0,0.0,0.0,24,0.00,,,0.00,WUHU216HW,2013-02-16 06:22:00,
2013-02-15 23:24:00,44.6,9.7,30.23,North,0,0.0,0.0,24,0.00,,,0.00,WUHU216HW,2013-02-16 06:24:00,
2013-02-15 23:26:00,44.3,9.4,30.23,North,0,0.0,0.0,24,0.00,,,0.00,WUHU216HW,2013-02-16 06:26:00,
2013-02-15 23:28:00,44.1,9.3,30.23,North,0,0.0,0.0,24,0.00,,,0.00,WUHU216HW,2013-02-16 06:28:00,
2013-02-15 23:29:00,44.3,9.4,30.24,North,0,0.0,0.0,24,0.00,,,0.00,WUHU216HW,2013-02-16 06:29:00,
2013-02-15 23:31:00,44.1,9.3,30.24,North,0,0.0,0.0,24,0.00,,,0.00,WUHU216HW,2013-02-16 06:31:00,
2013-02-15 23:32:00,44.1,9.3,30.23,North,0,0.0,0.0,24,0.00,,,0.00,WUHU216HW,2013-02-16 06:32:00,
2013-02-15 23:33:00,43.9,9.1,30.23,North,0,0.0,0.0,24,0.00,,,0.00,WUHU216HW,2013-02-16 06:33:00,
2013-02-15 23:34:00,43.9,9.1,30.23,North,0,0.0,0.0,24,0.00,,,0.00,WUHU216HW,2013-02-16 06:34:00,
2013-02-15 23:37:00,43.6,9.6,30.23,North,0,0.0,0.0,25,0.00,,,0.00,WUHU216HW,2013-02-16 06:37:00,
2013-02-15 23:38:00,43.6,9.6,30.24,North,0,0.0,0.0,25,0.00,,,0.00,WUHU216HW,2013-02-16 06:38:00,
2013-02-15 23:39:00,43.2,9.4,30.24,North,0,0.0,0.0,25,0.00,,,0.00,WUHU216HW,2013-02-16 06:39:00,
2013-02-15 23:43:00,43.0,9.2,30.24,North,0,0.0,0.0,25,0.00,,,0.00,WUHU216HW,2013-02-16 06:43:00,
2013-02-15 23:44:00,42.8,9.0,30.24,North,0,0.0,0.0,25,0.00,,,0.00,WUHU216HW,2013-02-16 06:44:00,
2013-02-15 23:46:00,42.8,9.0,30.24,North,0,0.0,0.0,25,0.00,,,0.00,WUHU216HW,2013-02-16 06:46:00,
2013-02-15 23:48:00,42.8,9.0,30.24,North,0,0.0,0.0,25,0.00,,,0.00,WUHU216HW,2013-02-16 06:48:00,
2013-02-15 23:49:00,42.8,9.0,30.24,North,0,0.0,0.0,25,0.00,,,0.00,WUHU216HW,2013-02-16 06:49:00,
2013-02-15 23:50:00,42.8,9.0,30.24,North,0,0.0,0.0,25,0.00,,,0.00,WUHU216HW,2013-02-16 06:50:00,
2013-02-15 23:52:00,42.8,9.0,30.24,North,0,0.0,0.0,25,0.00,,,0.00,WUHU216HW,2013-02-16 06:52:00,
2013-02-15 23:53:00,42.8,9.0,30.24,North,0,0.0,0.0,25,0.00,,,0.00,WUHU216HW,2013-02-16 06:53:00,
2013-02-15 23:55:00,42.8,9.0,30.24,North,0,0.0,0.0,25,0.00,,,0.00,WUHU216HW,2013-02-16 06:55:00,
2013-02-15 23:56:00,42.7,9.7,30.24,North,0,0.0,0.0,26,0.00,,,0.00,WUHU216HW,2013-02-16 06:56:00,
2013-02-15 23:57:00,42.7,10.6,30.24,North,0,0.0,0.0,27,0.00,,,0.00,WUHU216HW,2013-02-16 06:57:00,
2013-02-15 23:59:00,42.7,10.6,30.24,North,0,0.0,0.0,27,0.00,,,0.00,WUHU216HW,2013-02-16 06:59:00,